GFSWCAN_850_thetae_102.txt.gz
Theta_e
293 292 291 290 289 290 291 291 291 290 292 294 295 296 298 298 298 298 297 297 297 296 296 297 296 296 298 299 298 298 297 300 300 303 304 304 302 303 306 307 304 307 307 307 307 308 307 305 308 308 305 305 305 303
291 291 292 291 289 290 290 291 291 290 292 294 294 296 297 298 299 299 297 297 298 297 296 297 297 296 297 297 297 298 299 300 300 304 304 304 303 301 303 305 306 309 308 308 307 306 305 302 303 304 304 302 300 300
291 291 292 291 290 289 290 291 290 291 293 294 295 296 297 298 299 299 298 297 297 296 296 296 297 297 297 297 297 299 299 300 300 301 302 305 305 301 302 305 307 307 303 307 309 306 304 302 301 300 300 298 298 298
291 291 291 291 290 289 290 290 289 292 293 294 295 296 297 298 298 300 298 296 296 296 295 296 297 297 297 297 297 297 298 299 299 301 300 303 303 303 303 306 306 304 303 304 305 303 301 299 299 299 299 297 296 296
291 291 291 290 289 289 290 290 290 292 293 294 295 297 297 298 299 299 299 296 297 296 297 296 297 297 297 298 298 298 297 298 298 300 300 303 300 302 303 304 302 299 299 302 302 297 299 297 296 297 298 296 295 294
291 291 291 290 289 289 290 290 291 293 294 296 297 297 298 298 299 299 296 296 296 296 296 295 296 297 298 299 299 299 298 297 299 301 300 300 304 303 303 302 298 296 295 295 295 296 296 295 294 295 295 294 294 293
290 291 290 290 288 289 290 291 293 294 296 297 298 297 298 298 299 298 297 297 297 296 296 296 295 298 301 299 299 298 298 299 300 302 302 301 302 303 301 301 296 294 293 293 295 296 295 294 292 292 292 292 291 291
291 290 290 289 289 290 292 293 295 296 297 297 298 298 298 298 298 298 297 297 296 296 297 296 296 297 300 300 300 301 299 300 302 302 302 302 303 300 298 293 291 292 293 292 292 292 292 291 290 290 290 289 289 288
290 290 289 288 290 292 293 294 296 297 297 298 298 298 298 298 297 297 298 299 296 297 296 297 297 296 301 301 302 302 302 301 302 301 300 302 299 293 293 291 289 288 288 288 290 290 290 290 288 288 287 287 287 284
289 288 287 290 292 294 295 297 298 298 298 298 298 299 298 297 298 298 298 297 297 297 298 298 298 299 299 301 301 302 301 301 302 300 299 296 291 289 288 288 287 287 286 287 289 287 286 287 286 285 285 284 284 282
287 288 291 293 294 296 297 298 299 300 300 299 298 297 297 298 298 298 297 298 297 299 297 298 299 300 300 300 302 301 301 301 301 303 300 295 291 289 286 286 285 285 285 284 284 283 283 283 283 282 281 281 282 282
290 291 293 295 296 297 298 298 298 299 299 299 299 298 298 299 298 298 298 298 297 297 296 297 299 300 300 300 299 299 302 300 302 299 295 289 288 286 285 284 283 283 282 282 282 282 282 282 281 281 281 281 281 280
292 293 295 296 298 298 298 299 298 299 298 298 299 298 297 293 296 296 298 297 296 298 298 299 300 300 300 300 300 301 301 301 299 293 287 286 286 284 284 283 282 281 281 281 280 280 280 280 280 280 280 279 279 279
294 295 297 297 298 299 299 298 298 299 300 296 293 286 291 284 286 285 294 295 293 296 299 300 297 299 298 298 297 300 298 300 297 287 285 285 285 283 283 282 281 280 280 279 279 278 279 279 279 279 278 278 278 278
295 297 298 298 299 299 298 298 297 298 294 292 290 288 284 287 288 289 290 292 293 295 298 298 297 296 292 293 289 292 291 288 288 284 279 283 283 282 281 281 280 279 278 278 278 278 278 277 278 277 277 277 277 277
297 297 298 299 299 299 299 298 296 293 290 289 287 286 287 285 285 288 289 290 293 296 297 296 290 287 289 285 287 285 291 286 280 279 282 282 282 281 280 279 279 278 278 278 277 277 277 277 277 277 277 277 277 277
295 295 297 298 299 299 299 297 292 288 288 287 285 286 286 286 285 286 287 290 293 295 284 289 287 289 286 284 283 282 278 275 281 282 282 281 281 280 280 279 278 278 278 277 277 277 277 277 276 277 277 276 276 276
294 296 298 298 296 294 293 291 289 288 287 287 285 285 283 284 285 285 286 290 292 290 289 287 287 283 277 282 279 277 281 282 282 282 281 281 280 280 279 279 278 278 278 277 277 277 277 277 277 277 276 276 276 275
297 297 297 295 293 293 291 289 288 287 288 286 285 284 284 283 283 284 285 287 288 287 286 284 281 281 279 280 279 281 282 282 281 281 280 280 280 280 280 279 279 278 278 278 278 277 277 277 277 276 276 276 275 274
296 296 296 294 293 292 290 289 288 288 287 285 285 284 283 283 283 283 285 286 285 283 281 281 280 280 282 283 283 283 282 281 281 280 280 279 279 280 280 279 279 279 278 278 278 277 277 277 276 276 276 275 275 274
293 293 293 294 292 291 290 289 288 287 286 285 284 283 282 282 281 281 281 281 280 279 279 280 280 282 283 283 282 282 281 281 281 281 280 280 279 280 280 279 279 279 278 278 278 277 277 276 276 276 275 275 274 273
293 293 293 293 291 291 290 290 289 289 288 287 287 286 284 282 281 280 280 279 279 279 280 281 282 282 283 282 282 281 281 281 281 281 281 280 280 280 280 279 279 279 278 278 277 277 276 276 275 275 274 273 272 272
293 293 292 292 291 291 290 291 291 290 287 289 287 285 281 282 281 280 279 279 279 280 280 281 281 281 282 281 281 281 281 281 281 280 280 280 280 279 279 279 278 278 277 277 276 276 275 275 274 274 273 272 271 271
292 291 291 291 291 286 291 290 290 289 288 285 283 282 280 281 280 279 276 279 279 279 280 280 280 280 280 280 280 280 279 280 279 279 279 278 278 278 277 277 277 277 276 276 275 274 274 273 273 273 272 271 271 270
291 286 289 282 288 283 279 278 281 283 279 279 279 279 278 282 274 273 275 279 278 279 279 279 279 279 279 279 278 278 278 278 278 278 277 277 276 276 276 275 275 275 274 274 273 273 272 272 272 271 271 271 270 270
280 284 283 279 282 282 281 280 277 277 275 276 276 280 281 272 272 273 278 279 279 279 279 279 279 278 278 279 278 278 278 277 277 277 277 276 276 276 275 275 274 274 274 274 273 272 272 271 271 271 270 270 270 270
278 277 283 283 285 285 280 283 282 278 274 276 275 271 271 271 272 276 280 280 280 280 280 280 280 279 279 279 278 278 277 277 277 276 275 274 274 274 273 274 274 273 273 273 272 271 271 271 270 270 270 269 269 269
281 282 279 280 280 280 272 270 272 275 273 279 278 272 274 275 275 279 280 280 280 280 280 280 280 279 279 278 277 276 276 275 274 274 274 274 274 273 273 272 271 271 271 271 270 271 270 270 270 269 269 269 269 268
280 280 280 271 277 277 276 273 274 277 278 279 270 270 275 276 278 279 280 280 280 280 280 280 279 278 278 277 276 276 275 274 274 274 273 273 273 273 272 271 271 271 270 270 270 269 269 269 269 269 269 269 269 268
279 279 277 275 270 273 275 275 277 277 277 277 277 276 276 277 278 280 280 280 280 280 280 279 279 278 277 277 276 275 274 273 273 273 273 272 272 272 271 271 270 270 270 269 269 269 269 268 268 268 268 268 268 268
279 279 278 277 274 276 276 276 277 277 277 276 277 277 276 277 277 279 279 279 279 279 278 278 277 277 276 276 275 274 274 274 273 272 272 272 271 271 271 271 270 270 269 269 269 268 268 268 268 268 268 268 268 267
279 278 276 271 276 277 277 279 278 277 277 277 276 276 276 276 276 277 278 277 277 278 278 277 277 277 276 275 274 273 273 273 273 272 272 271 271 271 271 270 270 270 269 269 269 268 268 268 268 268 267 267 267 267
279 278 278 278 277 276 278 279 279 279 279 278 277 277 276 277 276 277 277 277 277 277 277 276 275 275 275 275 274 274 274 273 272 272 272 271 271 271 271 270 270 270 269 269 269 269 268 268 268 268 268 267 267 267

GFSWCAN_850_thetae_105.txt.gz
Theta_e
291 293 293 293 292 291 290 289 291 291 291 291 293 295 295 296 298 299 298 298 296 296 296 296 296 295 296 297 299 298 298 300 301 303 304 305 305 305 306 307 307 308 308 308 307 307 306 304 308 310 306 303 303 302
292 292 292 293 292 291 290 289 290 291 291 290 292 294 295 295 298 298 298 299 297 296 297 297 297 296 296 296 296 296 298 299 300 301 302 305 305 304 305 306 306 308 308 309 307 308 304 302 302 301 302 300 299 299
290 291 291 291 292 292 291 290 290 291 291 290 292 293 294 296 297 298 299 298 296 296 296 296 297 297 297 297 297 297 298 299 300 300 301 302 304 304 306 306 306 307 303 306 307 305 303 300 298 297 297 296 296 296
289 290 291 291 292 292 291 289 289 290 290 290 293 294 295 296 297 298 299 299 297 296 295 296 296 297 297 297 297 297 297 299 300 299 299 300 301 303 305 305 306 303 303 302 304 302 300 297 296 295 294 295 294 294
288 289 290 291 291 292 290 290 290 290 289 291 292 294 295 296 297 299 298 298 298 296 297 296 296 297 297 297 297 297 296 297 297 298 300 301 302 303 303 305 302 299 298 300 301 297 298 295 293 293 293 291 292 292
288 288 289 290 291 291 290 289 289 290 290 291 293 294 295 296 298 299 297 297 298 296 296 296 296 296 297 299 297 297 297 296 297 298 299 300 301 303 304 304 298 296 294 293 296 295 295 293 293 292 291 290 290 291
287 288 289 291 291 291 290 289 289 289 290 292 294 295 296 297 298 298 297 297 298 296 296 296 296 297 300 298 298 297 297 297 298 299 301 301 302 303 302 303 296 293 292 293 294 295 294 293 291 290 289 289 289 289
287 288 288 290 291 291 290 289 289 290 292 293 295 297 297 298 297 298 299 297 296 296 296 295 296 296 299 299 299 298 298 299 300 300 301 301 301 301 301 294 291 291 291 291 291 292 291 290 289 288 288 287 287 285
287 288 289 290 291 290 289 289 290 292 293 295 296 297 298 298 298 298 298 297 296 296 296 296 297 297 300 300 300 299 299 299 299 302 303 302 300 299 293 291 288 287 287 288 289 289 289 288 287 286 286 285 285 283
287 288 290 291 290 290 289 289 291 293 294 295 297 297 297 298 298 298 297 296 296 297 297 297 297 297 299 299 299 300 299 301 303 301 299 301 294 289 287 287 286 285 286 287 289 287 286 286 284 283 282 282 282 281
288 289 290 290 289 288 289 291 293 294 295 296 297 298 297 297 298 298 296 297 296 296 296 297 297 298 299 300 301 300 300 301 301 302 302 297 293 289 285 285 285 284 284 283 283 282 282 282 283 282 281 281 282 282
289 290 289 288 289 291 293 294 295 295 296 297 298 297 298 298 298 298 298 297 296 297 296 297 297 299 300 299 299 299 302 301 303 299 299 295 288 286 284 284 283 283 282 282 282 282 281 280 281 281 281 281 281 280
288 287 289 290 292 293 295 296 297 297 298 298 298 298 297 294 299 297 297 298 296 295 297 298 300 300 299 299 299 301 302 303 299 295 291 288 286 284 283 282 281 280 280 280 280 280 280 280 280 280 280 279 279 279
289 290 292 293 294 296 296 297 298 297 298 296 294 292 295 292 289 289 293 296 294 296 299 300 297 299 298 299 297 301 297 301 297 295 289 286 284 282 282 281 281 280 279 279 279 279 279 278 279 278 278 277 277 278
292 293 294 295 296 297 297 297 297 295 293 291 291 289 285 286 287 289 291 293 293 296 299 298 296 296 293 295 291 295 296 291 289 288 284 283 282 282 281 280 279 278 278 278 277 277 277 277 277 277 276 276 277 277
295 295 296 297 297 297 295 296 294 292 289 288 286 287 287 286 286 288 290 291 293 296 297 296 292 291 290 288 290 287 292 290 285 282 282 282 281 280 279 279 278 277 277 277 277 277 276 276 277 277 276 276 276 276
297 296 297 298 298 296 295 294 291 288 287 286 284 285 285 285 284 285 287 290 293 293 291 291 291 290 287 287 285 282 284 281 280 281 281 281 280 279 279 279 278 277 277 277 277 277 277 277 276 276 277 276 276 276
297 297 297 298 298 299 296 291 288 287 285 285 283 283 283 283 284 285 287 291 292 290 288 287 286 285 283 286 283 280 280 281 281 281 280 280 279 279 279 278 278 278 277 277 277 277 277 277 277 277 276 276 275 275
297 297 295 296 297 295 290 289 288 287 286 285 284 284 283 283 284 285 286 287 288 287 286 284 282 283 282 279 279 280 281 281 280 280 280 279 279 279 279 279 278 278 278 278 277 277 277 276 276 276 276 275 275 274
297 295 294 294 294 292 289 288 288 287 286 285 284 283 283 283 283 284 286 287 287 284 281 281 281 280 282 282 283 282 282 281 281 280 279 279 279 279 279 279 279 278 278 278 277 277 277 276 276 276 275 275 274 274
293 292 292 293 291 290 289 288 287 286 285 284 284 283 282 282 281 281 281 282 281 279 279 280 280 282 283 283 282 282 281 281 281 281 280 279 279 279 279 279 279 278 278 278 277 277 277 276 276 275 275 274 274 273
293 293 292 292 291 290 290 289 288 287 287 286 286 285 282 281 280 280 280 280 278 278 280 281 282 282 282 282 281 281 281 281 281 280 280 280 280 280 279 279 278 278 278 277 277 276 276 275 275 275 274 273 272 272
293 293 292 292 291 291 289 290 290 289 287 288 286 284 281 281 280 280 278 279 279 280 281 282 282 282 282 281 281 281 281 281 280 280 280 280 279 279 279 278 278 277 277 277 276 275 275 274 274 273 272 272 271 271
292 291 291 290 291 286 290 289 289 287 287 284 284 282 280 280 280 278 277 278 279 280 280 281 281 281 281 281 281 280 280 280 280 279 279 278 278 278 277 277 277 276 276 276 275 274 274 273 273 272 272 271 271 270
291 286 288 280 287 283 280 277 280 282 278 279 280 279 278 280 277 275 278 277 279 279 280 280 280 280 280 280 279 279 278 278 278 278 277 277 277 276 276 276 275 275 275 274 274 273 272 272 272 271 271 271 270 270
281 283 283 279 281 282 281 280 277 277 277 276 276 278 279 275 276 277 278 278 279 279 279 279 279 279 279 279 278 278 278 278 277 277 277 276 276 275 275 275 275 274 274 274 273 273 272 271 271 271 270 270 270 270
279 277 282 282 284 283 279 281 281 278 275 277 276 272 275 276 276 277 278 279 280 280 280 279 279 279 279 279 278 278 277 277 277 277 275 274 274 274 274 274 274 273 273 273 272 272 271 271 270 270 270 270 269 269
280 281 278 279 279 279 273 272 272 274 273 278 277 274 277 276 277 279 279 280 281 280 279 279 279 279 279 278 278 277 277 276 275 274 274 274 274 274 273 272 272 271 271 271 271 271 270 270 270 270 269 269 269 269
279 279 279 270 275 275 274 272 274 276 277 278 272 273 274 276 277 279 280 280 280 280 280 280 279 279 278 278 276 276 275 274 274 274 274 273 273 273 273 272 271 271 271 270 270 270 270 270 269 269 269 269 269 268
278 278 276 273 269 272 274 275 276 276 277 277 276 276 276 276 278 280 280 280 280 280 280 280 280 279 278 277 276 275 274 274 273 273 273 273 273 272 272 271 271 271 270 270 270 269 269 269 269 269 268 268 268 268
279 279 277 275 273 276 275 276 276 277 276 276 276 277 275 277 278 280 280 280 280 280 280 279 279 278 277 277 276 275 274 274 274 273 273 273 272 272 271 271 271 270 270 270 269 269 269 269 269 268 268 268 268 268
278 277 275 271 275 276 276 278 277 277 277 277 276 276 276 277 277 278 279 279 279 279 279 279 278 278 277 276 275 274 274 274 273 273 273 272 272 272 271 271 270 270 270 270 269 269 269 269 269 268 268 268 268 267
278 278 277 277 276 276 277 278 277 277 278 277 277 277 277 278 277 278 278 278 278 279 279 278 276 276 276 276 274 274 274 274 273 273 272 272 272 272 271 271 270 270 270 270 270 269 269 269 268 268 268 268 267 267

GFSWCAN_850_thetae_108.txt.gz
Theta_e
292 292 293 293 293 293 293 292 291 290 291 292 291 293 294 295 296 297 298 298 297 296 297 297 297 298 299 299 301 300 301 302 303 305 306 306 307 307 307 307 309 308 309 309 309 309 308 305 310 312 307 305 304 303
291 292 291 292 293 293 293 292 291 290 291 292 291 292 294 295 295 298 298 298 298 296 298 297 297 298 298 298 298 298 300 300 301 303 304 304 307 307 307 307 308 309 308 309 310 311 304 302 301 302 304 303 302 301
290 291 292 292 292 293 293 291 291 290 290 291 291 291 292 295 295 296 298 299 296 295 296 296 297 298 298 297 297 298 298 299 301 301 302 303 304 305 308 307 307 307 305 306 307 304 302 298 298 299 299 299 298 298
289 289 290 291 292 291 292 292 291 290 290 291 291 290 292 294 295 296 298 298 298 296 298 299 297 297 297 297 297 298 298 300 300 301 301 302 303 303 306 307 306 304 304 304 304 301 298 296 295 295 296 296 295 294
288 289 289 290 291 291 292 292 291 290 290 291 290 290 293 294 295 297 298 298 298 297 299 299 298 298 297 297 297 298 299 299 299 300 301 301 302 303 305 306 305 300 299 302 304 297 298 295 293 293 293 292 292 292
288 288 288 289 289 291 291 292 291 291 290 290 290 291 293 294 295 297 298 298 298 297 297 300 298 298 297 297 298 298 299 298 298 299 300 300 301 302 306 305 298 296 294 294 297 294 294 292 292 292 292 292 290 289
287 288 288 288 289 289 291 291 291 290 289 289 290 291 293 294 296 297 298 298 298 298 296 298 299 298 299 298 298 298 298 298 298 299 300 301 302 304 304 304 296 294 293 293 294 294 293 292 290 289 289 288 288 287
287 287 288 288 288 289 291 291 290 290 289 289 290 292 294 295 296 297 298 297 297 296 296 298 299 298 299 300 299 298 298 299 299 300 301 302 302 303 303 296 293 292 292 291 292 292 291 290 289 288 288 289 288 287
287 287 287 288 289 289 291 291 290 289 289 290 292 294 295 296 297 298 298 298 296 297 297 296 300 301 300 300 300 299 298 300 301 302 303 303 303 303 296 293 291 289 289 289 290 290 289 288 287 287 287 288 287 286
287 287 287 288 289 289 291 291 290 289 290 292 293 295 296 297 298 298 296 296 296 297 297 298 298 301 300 299 301 300 300 301 302 301 302 304 298 290 289 289 288 287 286 288 290 290 288 288 287 285 284 284 284 283
287 287 287 288 289 290 291 290 289 290 292 292 295 296 297 297 298 297 296 297 297 298 297 298 299 302 300 301 303 300 301 302 302 304 303 303 299 290 287 286 285 284 284 284 284 284 284 284 285 284 282 281 280 280
287 287 288 289 290 291 290 289 288 290 292 294 297 297 297 298 298 299 300 299 297 299 298 298 298 298 301 300 302 301 305 303 303 302 304 302 291 287 286 285 284 283 282 282 281 280 280 280 281 281 280 278 277 279
287 288 289 289 290 290 289 289 291 292 293 295 297 297 297 297 300 301 299 299 299 299 298 298 300 300 299 299 300 302 305 305 301 304 301 293 288 286 285 283 282 281 280 280 279 278 279 280 280 280 279 279 279 279
288 289 290 290 289 289 290 292 292 293 293 295 297 296 299 299 301 301 301 301 299 299 299 300 299 301 300 300 300 301 301 302 304 301 296 289 286 284 283 282 281 279 279 279 279 279 279 278 278 278 278 278 278 278
289 289 288 289 290 292 292 294 294 293 295 292 295 298 294 291 291 292 293 296 295 298 299 299 299 299 297 299 296 298 301 300 296 296 290 286 284 282 281 280 278 278 278 278 278 278 278 278 278 277 277 277 277 277
289 290 291 292 293 294 293 295 295 294 289 288 288 291 290 293 292 292 295 294 295 297 298 299 298 298 296 295 297 296 299 299 291 287 285 283 281 280 279 279 278 278 277 277 277 277 277 277 277 277 277 276 276 276
292 294 295 295 295 295 295 292 291 288 288 288 288 286 288 292 291 288 290 291 294 295 300 298 299 297 293 295 293 290 292 288 285 284 283 282 280 279 279 278 278 278 277 277 277 277 277 277 276 275 276 276 276 276
295 295 295 297 297 295 290 289 289 287 287 287 288 285 285 285 287 287 287 290 292 293 293 293 292 293 294 295 292 286 284 284 283 283 281 279 279 278 278 278 278 277 277 277 277 277 277 276 275 275 275 275 274 273
295 296 296 297 298 293 290 288 289 288 287 286 285 285 285 284 284 285 286 287 288 288 289 289 291 292 290 286 286 285 284 283 282 281 279 279 279 279 278 278 278 278 278 277 276 277 276 276 276 275 274 274 274 273
295 295 294 294 295 291 290 289 288 288 288 286 286 286 285 285 284 284 286 286 287 287 287 288 288 286 286 284 284 284 283 282 281 281 280 279 279 279 278 278 278 277 277 277 277 277 276 276 275 275 274 274 274 273
294 294 294 295 292 290 290 289 288 287 286 286 285 286 285 284 285 285 284 283 285 283 285 283 282 281 282 282 282 282 282 282 283 283 282 280 279 279 278 278 278 278 278 278 278 277 277 276 275 274 274 273 273 272
293 293 293 292 291 290 290 288 288 287 288 287 287 286 286 286 284 283 281 283 282 281 282 282 281 281 282 282 281 282 281 281 281 281 280 280 280 280 280 279 279 278 278 277 277 276 276 275 274 274 273 273 272 271
293 293 292 292 291 291 290 290 290 290 290 289 287 286 285 284 282 281 282 282 281 279 280 280 281 281 282 281 281 281 281 281 281 280 280 279 279 279 278 278 278 277 277 276 275 275 274 274 274 273 273 271 271 270
292 292 291 290 291 290 289 290 290 289 288 288 287 285 284 284 281 283 284 282 281 279 280 281 280 280 280 280 280 280 281 280 280 279 279 279 278 277 277 276 276 276 276 275 274 274 273 273 273 272 271 271 270 270
291 286 288 288 287 289 290 289 288 288 288 287 286 285 284 282 284 285 285 282 281 280 280 280 281 282 282 280 279 280 280 279 279 278 278 278 277 277 277 276 276 275 275 274 274 273 273 272 272 271 271 270 270 270
287 283 287 288 288 290 289 289 288 287 287 286 286 283 282 284 284 287 284 282 281 280 280 280 281 280 280 280 279 279 279 278 278 277 277 277 276 276 276 275 275 275 275 274 274 273 272 272 271 271 270 270 270 269
287 285 283 282 284 285 286 285 284 287 287 287 285 283 284 286 287 283 279 280 280 280 280 280 280 280 279 279 279 279 278 278 278 277 277 275 275 274 274 274 274 274 273 273 273 272 271 271 271 270 270 270 270 269
282 282 286 281 281 281 283 284 285 286 285 282 283 285 285 286 285 280 280 280 281 281 280 280 280 280 280 279 279 279 278 277 277 275 275 274 274 274 274 273 273 273 272 272 271 271 271 271 270 270 270 269 269 269
280 279 280 277 278 278 278 281 281 279 277 280 283 281 279 276 277 277 280 280 281 281 280 279 279 279 279 279 278 278 277 276 275 275 274 274 274 274 273 273 272 272 271 271 270 270 270 270 270 270 270 269 269 269
279 278 279 276 278 280 277 275 277 276 276 277 277 276 276 275 278 279 280 280 280 280 280 280 280 280 279 279 278 277 276 275 275 274 274 273 273 273 273 272 272 271 271 270 270 270 269 269 269 269 269 269 269 268
278 278 278 278 278 277 275 276 276 277 277 276 276 277 277 276 278 279 279 280 280 280 280 280 280 279 279 278 277 277 275 275 274 274 274 274 273 273 272 272 272 271 271 270 270 270 269 269 269 269 269 268 268 268
277 276 278 279 278 276 276 276 277 278 277 278 277 276 277 278 279 278 280 280 280 280 280 280 280 279 278 277 276 275 275 275 274 274 274 273 273 272 272 272 271 271 271 270 270 270 269 269 269 269 269 268 268 268
276 276 276 277 278 278 277 278 278 278 278 278 277 277 277 279 278 278 279 279 279 280 279 279 279 278 277 277 275 275 275 274 274 273 273 273 272 272 272 272 271 271 270 270 270 270 269 269 269 269 268 268 268 268

GFSWCAN_850_thetae_111.txt.gz
Theta_e
294 293 293 294 295 294 294 293 292 291 291 292 293 292 294 295 296 297 298 298 298 298 299 300 300 300 300 301 302 302 302 304 304 305 306 307 308 308 308 308 309 310 310 312 311 311 312 306 309 310 305 306 306 305
293 293 292 293 294 294 294 294 293 292 291 291 292 292 293 294 295 296 297 298 298 297 298 299 300 300 300 300 300 300 301 301 302 305 306 305 306 308 308 309 309 310 308 308 312 309 304 302 302 302 304 304 303 303
290 292 292 292 292 294 294 294 293 292 291 291 292 292 292 293 295 295 297 298 297 296 297 297 299 301 300 300 300 300 300 300 302 303 303 305 305 307 308 309 308 309 306 308 307 301 300 298 299 300 300 300 300 300
290 290 290 292 292 292 293 294 293 291 291 291 292 292 291 292 294 295 297 297 297 297 300 301 301 300 300 300 300 300 300 301 301 302 302 303 303 304 306 306 307 306 306 305 305 301 300 298 296 296 297 297 297 296
289 289 289 290 291 292 292 293 293 291 291 290 291 291 290 291 294 295 296 297 297 297 300 301 301 301 300 299 300 300 300 300 299 301 302 302 302 305 305 307 306 302 300 304 304 297 299 296 294 294 294 294 294 295
288 288 289 289 290 291 292 292 292 292 291 290 290 291 290 290 293 295 297 298 297 297 298 302 301 300 300 300 300 300 300 299 299 300 301 301 302 303 306 307 299 297 296 295 296 295 295 293 293 292 291 290 291 291
288 288 288 288 289 289 291 292 292 292 291 290 290 290 290 292 295 297 298 298 298 297 297 301 301 300 300 300 300 300 299 299 299 299 300 301 303 302 306 306 298 296 295 294 294 295 294 293 292 291 290 290 289 289
288 287 288 288 288 289 289 290 292 292 291 290 290 290 290 292 294 295 296 297 297 297 298 300 302 301 300 299 299 298 299 299 299 300 301 302 303 304 305 298 296 295 294 293 293 292 291 290 290 290 290 291 291 289
288 287 287 288 288 288 289 290 292 291 290 289 290 290 292 293 295 296 296 297 297 297 300 298 301 303 301 302 301 300 300 301 300 302 303 303 304 304 298 296 294 292 292 292 292 292 290 289 288 288 288 289 290 288
288 288 287 287 287 288 289 290 291 290 289 289 291 292 294 296 296 297 297 296 296 297 298 300 300 303 302 302 302 301 300 304 302 303 302 304 302 293 292 291 291 290 289 291 293 292 290 290 288 287 286 286 286 285
288 288 287 287 287 289 289 291 291 290 289 292 293 294 296 297 297 297 296 298 298 300 299 300 300 303 301 303 304 302 304 303 303 304 304 304 301 293 290 289 288 287 287 286 287 286 286 286 287 286 284 283 282 281
288 288 287 287 287 289 290 291 291 290 291 293 294 296 297 297 298 300 300 300 300 300 300 300 299 301 302 301 303 302 302 304 303 304 304 304 293 290 289 287 286 285 284 284 283 282 282 282 283 283 282 280 278 277
288 287 287 287 287 289 290 291 291 290 291 294 294 295 296 298 302 301 302 300 301 301 300 299 301 300 301 301 301 303 304 305 304 305 303 295 290 288 287 286 284 283 283 282 280 279 278 279 278 277 277 276 277 278
287 287 288 288 289 290 291 291 289 289 290 292 295 298 301 301 302 302 302 303 302 302 300 300 302 301 301 301 302 303 304 303 306 305 300 292 288 286 285 284 283 280 279 278 277 277 277 277 277 277 277 277 276 277
287 287 287 289 290 291 290 289 290 291 292 293 295 302 299 296 296 296 297 299 298 300 300 301 302 301 301 302 300 302 303 305 301 299 293 288 286 285 283 282 280 278 277 277 277 276 275 275 275 275 275 275 276 276
287 288 290 290 290 289 290 291 291 292 293 291 291 294 294 296 295 296 296 295 297 300 301 302 302 302 301 301 301 302 302 303 295 291 287 285 284 282 281 279 278 278 277 277 276 276 276 276 275 275 276 276 276 276
290 290 290 290 290 290 291 292 291 291 290 290 291 290 293 297 297 294 295 294 297 299 302 302 302 301 298 300 299 296 297 293 288 287 286 284 282 280 278 277 277 277 277 277 276 276 276 276 276 277 276 275 275 276
290 290 291 290 291 291 291 290 289 289 290 289 292 290 290 291 292 292 291 293 296 298 299 299 297 298 299 300 298 291 288 287 286 284 283 282 280 279 279 278 278 278 277 277 276 276 276 277 278 277 276 275 276 275
292 294 295 293 292 292 290 290 290 290 289 288 288 289 289 288 288 289 290 292 293 294 294 295 297 298 296 292 291 288 286 285 284 283 281 280 279 278 278 278 278 278 277 278 279 279 278 277 278 278 277 277 277 276
294 293 293 295 292 292 291 290 291 291 291 289 289 289 289 289 288 288 290 290 292 293 293 294 293 290 290 289 288 287 286 285 283 283 282 280 279 279 279 280 280 279 279 278 278 278 278 278 278 277 277 276 277 276
294 293 293 293 292 292 292 291 290 289 289 289 289 290 288 289 290 290 289 289 291 291 291 288 286 285 286 286 285 285 284 285 285 284 283 281 281 281 280 280 279 280 281 280 280 279 279 279 278 277 276 275 274 274
293 292 293 292 292 292 291 291 291 290 290 289 290 290 291 291 290 288 287 290 288 286 287 286 285 284 284 284 284 285 284 284 284 283 283 281 282 282 281 281 281 281 280 280 279 279 278 277 276 275 275 273 273 273
293 293 292 292 292 292 291 292 292 291 292 291 290 291 291 290 287 285 288 287 284 284 285 285 285 285 282 282 282 281 282 283 283 283 282 283 282 282 281 280 280 280 280 279 278 278 277 275 274 274 273 274 273 272
293 292 291 293 293 292 292 292 291 291 291 291 291 289 289 288 285 288 290 288 284 283 282 282 283 283 283 282 283 283 283 283 282 282 282 282 281 280 280 279 279 278 278 277 277 276 275 275 273 274 273 273 273 273
293 289 291 291 291 292 292 292 292 292 291 291 290 289 288 286 290 291 290 286 283 284 283 283 284 284 284 284 283 281 281 282 282 281 280 281 280 279 279 278 277 277 276 276 276 275 275 274 273 273 273 273 273 272
291 287 291 292 292 293 294 293 292 292 291 291 290 288 287 290 290 291 290 286 285 283 283 284 284 285 284 283 282 281 280 281 281 280 279 279 279 280 279 278 278 276 275 275 275 275 274 273 273 272 272 272 271 271
291 289 287 285 288 289 291 290 290 292 291 291 290 288 289 290 291 288 286 286 285 284 284 284 284 284 283 283 282 280 279 279 280 279 278 277 277 276 277 278 277 276 275 274 273 273 274 273 272 272 272 272 271 271
286 286 288 286 286 287 289 290 291 290 290 288 289 289 290 291 290 284 285 285 284 283 283 283 283 283 282 280 279 280 280 279 279 278 277 276 275 275 275 275 274 274 273 273 272 272 272 272 272 271 271 271 271 269
285 284 284 281 284 284 284 286 287 284 282 286 290 287 284 280 279 280 282 283 282 282 282 281 281 280 279 279 279 279 279 278 278 276 276 277 275 274 274 274 273 273 272 272 272 272 272 271 270 270 270 270 270 269
283 283 284 282 283 285 282 280 281 279 279 280 280 279 279 278 276 279 281 281 281 281 280 279 279 279 279 279 279 279 278 277 276 276 276 276 276 275 274 274 273 273 272 271 271 272 271 270 270 270 269 269 268 268
281 284 284 284 283 281 279 277 277 278 279 280 280 283 281 278 276 277 279 281 281 280 279 279 279 278 279 279 279 279 278 277 276 275 275 275 274 274 274 273 273 272 272 271 271 270 270 270 269 269 269 269 268 268
282 282 283 284 282 279 278 281 282 282 281 283 281 280 279 282 281 277 279 279 280 279 278 278 278 278 279 278 278 278 277 276 276 275 275 274 274 274 273 273 272 272 272 271 271 271 270 270 269 269 268 268 268 268
281 281 282 282 282 282 281 282 282 282 282 283 282 282 282 283 282 278 278 278 278 279 278 278 278 279 279 278 278 277 276 276 275 275 274 274 274 273 273 272 272 272 271 271 271 270 270 270 269 269 269 268 268 268

GFSWCAN_850_thetae_114.txt.gz
Theta_e
296 297 296 296 297 296 295 294 293 292 293 293 293 293 293 296 296 297 298 298 297 298 299 300 301 301 302 302 304 302 303 303 304 306 306 307 307 307 308 308 309 309 310 308 310 311 312 303 307 308 305 304 304 303
294 294 295 296 296 296 295 294 293 292 292 292 292 293 292 295 296 296 297 297 297 298 299 300 299 299 301 302 302 302 301 301 302 305 305 305 306 307 307 310 309 309 308 308 309 307 301 301 302 301 302 302 302 302
292 293 294 293 294 295 295 294 294 292 292 291 292 292 292 292 294 295 297 297 297 297 298 299 302 302 302 302 301 301 301 301 302 303 303 305 306 307 308 307 307 308 306 307 306 301 300 299 298 298 298 300 299 300
291 292 293 293 293 294 295 294 294 294 292 291 292 292 292 292 293 295 296 297 297 297 299 301 302 302 301 301 302 301 301 302 302 302 302 304 304 304 305 306 307 306 306 304 303 301 300 297 295 296 296 296 297 297
291 291 292 293 292 292 293 294 294 294 291 291 291 292 292 291 292 294 295 297 297 297 300 300 300 301 302 301 301 301 300 300 300 301 303 303 302 304 305 306 304 301 300 302 301 296 298 295 294 294 293 293 294 294
288 290 290 290 291 292 292 293 293 293 291 291 291 291 291 291 291 294 296 296 297 297 297 301 302 302 301 301 301 301 301 301 301 300 301 301 301 303 305 306 299 297 296 295 296 295 295 294 293 293 292 291 291 292
289 288 288 289 290 291 292 292 293 292 292 291 291 291 291 290 291 295 297 298 297 297 298 300 302 302 301 301 301 301 301 301 300 300 300 300 301 303 305 305 298 296 295 295 295 295 295 293 292 292 292 292 291 291
288 287 288 289 289 289 291 291 292 292 292 291 290 290 290 290 291 293 296 297 297 297 298 301 302 302 301 301 300 299 299 300 300 300 301 302 302 304 305 299 297 296 295 294 293 292 292 291 291 290 291 292 292 290
288 288 287 288 287 289 289 290 292 292 292 291 290 290 290 291 293 295 296 296 296 297 298 300 301 303 302 302 301 300 300 300 300 302 302 302 304 304 300 298 295 294 294 293 294 293 291 290 289 288 288 288 289 288
288 288 288 287 288 288 289 289 291 292 291 290 290 292 292 292 294 295 296 297 297 297 298 301 300 303 302 302 302 302 301 302 303 303 302 304 300 294 293 292 292 291 290 291 293 293 290 290 289 286 285 285 285 284
288 288 288 287 287 287 288 289 291 291 290 291 292 293 294 295 294 296 297 297 297 299 299 300 301 303 302 303 302 301 303 303 303 304 304 304 299 293 291 290 289 288 287 287 288 287 286 286 287 286 284 282 281 280
289 288 288 287 287 287 289 289 292 291 291 291 293 294 296 297 297 299 300 300 300 300 301 301 302 302 303 303 303 302 303 303 303 305 304 303 294 291 289 288 287 286 285 284 283 282 281 281 282 282 281 279 278 278
289 289 288 287 287 288 290 290 291 292 291 292 293 294 294 297 300 300 301 301 302 302 302 301 301 301 303 302 302 301 301 303 304 305 302 294 291 289 288 286 285 284 283 282 280 279 278 279 280 278 277 277 277 278
289 288 288 287 287 288 290 292 291 291 292 292 294 297 299 299 301 302 303 304 302 302 302 300 301 302 302 302 303 300 303 303 305 306 298 292 289 287 286 285 282 280 280 279 278 277 277 277 277 276 276 276 276 277
288 288 288 287 286 288 290 291 291 290 290 292 295 299 300 298 298 297 300 301 302 301 301 302 302 302 303 302 301 302 303 304 302 298 293 289 287 285 284 282 280 279 279 278 277 277 276 276 276 275 276 275 276 276
288 288 288 288 288 289 292 291 290 290 292 293 293 296 296 298 297 297 298 298 300 301 301 302 302 301 302 302 302 303 303 303 296 292 288 286 284 283 281 280 279 279 278 278 277 277 276 276 276 276 276 277 276 276
287 288 287 288 289 291 291 290 290 292 293 293 294 292 293 296 298 295 296 296 299 301 303 302 302 302 301 301 301 298 298 293 290 288 287 285 283 281 279 279 278 279 278 278 278 277 277 277 278 278 277 276 276 276
289 289 288 290 291 290 291 291 292 292 292 292 293 293 292 293 294 294 294 296 298 300 301 301 300 300 300 302 300 293 290 288 287 285 284 282 281 280 279 279 279 279 278 278 278 278 279 279 279 278 278 277 278 277
290 290 290 291 290 291 291 291 291 292 292 290 290 291 291 291 291 292 294 295 296 297 297 298 300 300 298 295 292 289 288 286 285 283 282 281 280 280 279 279 279 279 278 279 280 280 279 279 279 279 278 278 278 277
291 290 290 290 291 292 291 291 292 291 291 291 291 291 292 291 291 291 293 294 295 297 296 297 296 293 293 291 289 288 287 285 283 283 281 280 279 279 279 280 280 279 280 279 279 279 280 280 279 278 278 277 278 277
290 292 291 290 292 293 292 293 292 291 290 292 291 291 291 290 292 292 292 292 294 295 293 291 289 289 289 288 287 286 285 285 285 284 283 281 281 281 281 281 280 281 281 281 281 280 279 279 278 278 277 276 275 275
292 292 291 293 293 292 292 293 292 291 291 291 292 292 292 293 292 291 291 292 292 289 290 288 287 287 286 286 285 286 286 286 285 284 283 282 283 282 282 281 281 282 281 281 280 280 279 278 277 276 276 275 275 274
293 293 294 293 292 292 292 293 293 292 292 293 292 292 292 292 291 289 292 291 288 287 288 286 286 286 285 285 285 284 285 285 284 283 283 284 284 283 282 282 281 281 281 280 279 279 278 277 276 276 275 275 275 274
293 293 293 294 293 292 293 294 293 292 292 293 294 292 292 291 289 291 293 291 287 286 286 286 285 284 284 283 284 284 284 284 284 284 283 282 282 282 281 281 280 280 280 279 278 278 276 276 275 275 275 274 274 274
294 291 293 293 293 293 293 294 294 294 293 293 292 292 291 289 292 293 294 289 285 285 284 285 285 284 284 285 284 284 284 283 283 283 283 282 282 281 280 279 279 278 277 277 277 277 276 275 274 274 274 274 274 273
293 289 293 294 294 295 295 294 294 294 293 293 292 291 289 292 293 294 293 288 285 285 284 285 285 285 286 285 284 283 283 283 283 282 281 281 281 281 280 279 279 278 277 276 277 276 276 275 274 274 273 273 273 272
293 291 289 288 292 293 293 293 294 294 293 293 292 291 291 292 293 291 289 287 286 285 285 285 286 286 285 284 283 282 282 282 282 281 280 280 280 280 280 280 279 278 278 276 275 275 275 275 274 273 273 273 273 272
288 289 290 289 289 290 292 293 293 293 293 292 292 292 292 293 292 287 288 286 286 284 285 285 286 285 284 283 282 281 280 281 281 281 279 278 277 277 276 276 277 277 275 274 274 274 273 274 273 273 272 272 272 272
288 287 286 284 287 288 288 289 290 286 284 289 293 291 287 283 282 285 286 286 285 284 285 285 284 284 283 282 281 280 280 280 280 279 277 277 276 276 276 275 275 274 275 274 274 273 273 273 272 272 272 271 271 271
286 286 287 284 286 288 284 283 284 282 282 283 283 282 281 279 280 283 284 284 284 284 284 283 282 282 281 280 279 278 279 279 278 277 277 278 277 277 276 275 275 274 273 273 273 273 272 272 271 271 270 270 270 270
285 287 287 287 286 283 281 280 280 281 282 283 284 285 281 278 279 281 283 283 283 283 282 281 280 280 279 279 278 278 278 278 278 277 278 278 277 276 275 275 274 274 273 272 272 271 271 271 271 271 270 270 270 270
285 286 286 287 284 281 281 284 284 285 284 285 283 282 281 283 281 280 281 282 282 281 280 280 280 279 279 278 278 278 278 278 277 276 276 275 275 275 275 274 274 273 273 272 272 271 271 271 270 270 270 270 269 269
285 285 285 285 284 285 283 285 285 285 285 285 284 285 284 284 281 277 279 280 280 280 280 280 280 279 278 278 278 278 278 277 276 276 276 275 275 274 274 274 273 273 273 272 272 271 271 270 270 270 269 269 269 269

GFSWCAN_850_thetae_117.txt.gz
Theta_e
297 298 298 298 296 295 294 294 294 293 293 293 293 293 293 296 297 297 298 298 297 298 297 298 300 303 302 302 300 302 299 300 299 299 304 303 303 304 306 309 309 307 305 302 306 306 307 301 303 305 303 303 303 301
296 296 296 297 297 296 295 295 294 293 293 293 293 293 292 295 296 296 297 297 297 297 297 298 298 300 299 299 302 302 301 301 301 298 299 301 301 302 304 309 307 308 307 306 304 304 300 299 299 298 299 299 299 300
295 295 296 297 296 297 296 295 294 292 292 292 292 292 293 292 295 296 296 297 296 295 297 300 301 302 302 301 300 301 301 301 302 302 301 301 302 298 304 303 305 306 305 303 304 301 299 297 296 297 297 297 297 296
294 294 294 295 296 296 296 295 294 292 292 292 291 292 292 292 293 294 295 296 296 297 297 300 302 302 302 301 302 301 301 301 301 301 301 299 301 302 301 303 305 302 300 298 301 298 297 295 295 294 294 295 295 295
292 292 293 293 293 294 295 295 294 294 293 291 291 292 292 292 292 293 295 296 296 298 298 297 297 301 301 301 301 301 301 301 299 300 299 296 301 300 301 303 302 299 298 299 299 296 297 294 293 293 293 292 292 292
291 292 292 293 293 293 295 295 294 294 292 291 291 292 292 292 291 292 295 295 296 297 297 297 299 301 302 301 301 300 301 300 300 301 300 301 301 301 301 299 298 297 296 295 296 295 294 293 292 292 292 291 291 291
290 291 292 293 293 292 293 293 293 294 292 291 291 291 291 291 291 293 296 297 298 297 297 297 299 302 302 301 301 301 301 301 300 300 299 299 300 301 299 298 297 295 295 294 294 295 293 293 292 291 292 292 291 290
289 288 290 291 292 292 292 292 293 293 292 291 291 291 291 291 290 292 297 296 298 298 296 297 297 302 301 301 300 299 299 299 299 299 300 300 301 302 300 298 296 295 294 294 293 292 292 291 290 290 291 291 289 288
289 288 288 289 290 290 291 292 293 292 292 291 290 290 290 290 291 292 294 295 296 297 297 298 298 295 301 301 300 299 299 299 299 298 299 299 296 297 298 296 294 293 292 293 293 292 291 289 288 288 288 287 287 285
288 287 287 288 289 289 290 291 292 292 292 291 290 290 291 291 292 293 296 297 296 296 296 298 299 296 301 302 301 300 300 300 298 298 301 297 294 292 291 290 290 289 290 291 293 288 288 288 287 285 284 284 283 282
288 288 287 287 288 288 289 290 292 292 292 290 291 291 291 292 294 295 294 296 296 297 296 298 300 298 302 298 296 301 301 300 300 300 302 302 296 292 289 288 288 287 287 287 286 286 286 285 285 283 282 281 280 279
288 288 288 287 287 287 289 289 291 292 291 291 291 293 295 294 295 294 297 296 297 297 300 300 300 300 302 302 301 300 299 298 300 302 300 296 292 289 288 286 285 285 284 284 283 283 283 283 282 282 281 280 279 278
287 288 288 287 287 287 288 290 291 291 291 292 292 294 294 295 295 295 296 297 294 300 302 301 295 302 302 301 300 298 300 299 301 300 297 292 290 288 286 285 284 283 282 281 280 280 280 280 280 279 278 278 278 278
288 288 288 287 287 287 289 290 291 292 291 292 293 291 294 297 297 294 295 296 301 302 301 300 301 301 302 299 299 299 297 300 300 298 294 290 288 286 285 284 283 281 280 280 279 279 278 278 278 278 278 278 278 278
288 289 288 287 286 288 290 291 291 291 291 292 293 292 296 298 297 298 300 302 303 302 301 300 300 301 298 297 298 298 300 297 298 293 288 287 286 285 284 282 281 279 278 278 278 278 277 277 278 278 278 278 278 278
288 289 288 287 286 288 290 291 292 291 290 292 293 293 295 297 296 297 299 300 302 300 300 301 295 299 296 299 300 296 299 297 294 288 286 286 285 283 282 281 280 279 278 278 278 278 278 277 277 277 277 277 277 277
289 289 288 287 286 288 291 292 290 290 291 293 294 292 292 294 296 296 298 298 299 300 298 300 297 299 297 296 300 296 294 286 288 286 285 285 284 282 281 279 279 279 278 278 278 278 278 278 278 277 277 277 277 276
289 288 287 287 288 290 291 290 291 292 292 292 292 293 292 293 294 295 295 297 300 300 300 299 300 297 295 298 295 290 289 287 286 285 284 283 282 281 280 279 279 279 279 279 279 279 279 279 279 278 278 278 277 277
288 288 287 288 290 290 291 291 291 292 292 291 291 291 292 292 292 293 295 296 297 297 298 298 294 297 295 293 291 288 286 285 284 283 282 281 281 280 279 279 279 279 279 280 280 279 279 279 279 278 278 278 278 277
289 288 286 288 291 292 292 291 291 291 290 290 290 291 291 292 291 292 294 295 295 297 296 293 294 293 293 292 291 288 286 285 283 281 281 280 280 279 279 279 279 279 279 279 279 279 279 279 278 278 277 277 277 276
290 288 290 291 291 292 292 292 293 292 291 291 291 291 291 290 291 292 293 294 295 295 292 291 291 291 291 290 289 288 286 285 283 282 281 280 280 281 281 281 280 280 281 281 280 279 280 279 278 278 277 276 276 275
290 290 291 290 291 293 292 293 292 291 291 291 291 291 292 293 292 292 292 293 293 291 290 290 289 289 289 288 287 286 285 284 283 282 281 281 281 281 281 281 281 282 282 281 281 280 279 279 278 277 276 275 275 274
291 290 290 290 292 292 292 292 292 291 289 292 293 292 291 293 292 291 292 293 290 289 289 288 288 287 287 286 285 285 286 286 284 283 282 282 281 281 281 281 282 281 281 280 279 279 278 278 277 276 275 275 274 274
291 292 294 294 293 292 292 293 293 293 292 292 293 292 292 291 289 290 292 290 287 288 287 287 286 286 285 286 285 285 285 284 283 282 283 283 283 282 281 281 281 281 281 280 279 278 277 276 275 275 275 274 274 274
293 292 292 294 292 293 293 292 293 293 292 291 290 289 288 289 285 288 293 288 287 287 286 286 286 286 285 285 284 284 285 284 283 284 283 282 282 281 281 280 280 279 279 279 278 277 276 276 275 275 274 274 274 274
294 290 291 293 294 294 293 293 291 292 292 288 287 291 290 285 288 287 290 289 287 286 286 286 285 284 284 284 284 284 284 283 283 282 282 282 282 281 280 279 279 278 278 277 278 277 276 276 275 274 274 273 273 273
292 289 289 290 292 294 292 294 294 290 287 286 286 285 285 285 285 287 288 288 287 286 286 285 285 284 285 284 284 284 283 283 283 282 282 282 281 280 280 280 279 279 279 278 277 276 276 275 275 274 273 273 273 273
289 289 286 289 290 291 290 288 287 287 288 292 291 286 284 284 285 287 287 287 287 286 285 285 285 286 286 285 284 283 283 283 283 282 281 281 281 280 280 280 280 279 278 277 275 274 274 275 274 274 273 273 272 272
288 287 287 280 288 288 287 285 287 285 285 287 285 283 284 282 283 285 286 286 285 285 286 286 286 286 285 284 284 283 282 282 282 281 281 280 279 278 277 277 276 276 276 275 275 274 274 273 273 273 273 272 272 271
286 287 286 285 281 284 283 282 283 282 283 284 283 282 280 280 282 284 285 285 285 285 286 285 285 285 284 284 283 282 281 281 281 280 279 279 278 278 277 276 276 276 275 275 275 274 274 273 272 272 272 271 271 270
286 287 288 287 283 282 281 281 281 282 283 284 284 283 280 280 282 283 284 285 285 285 285 284 284 283 283 283 282 281 279 279 279 279 277 278 278 278 277 276 276 275 275 275 274 274 273 273 272 272 271 271 270 270
286 286 286 283 282 281 282 283 284 285 283 284 282 281 281 281 280 280 280 283 283 283 283 283 282 282 281 280 280 279 279 279 279 278 277 277 277 277 276 276 275 275 274 274 274 273 273 272 271 271 271 270 270 270
285 285 285 284 282 283 283 284 285 284 285 285 284 284 282 281 278 276 277 279 280 281 281 281 280 280 279 279 279 279 279 278 278 277 277 276 275 275 275 275 275 274 273 273 273 272 272 271 271 271 270 270 270 269

GFSWCAN_850_thetae_123.txt.gz
Theta_e
298 297 297 296 296 296 296 296 296 295 294 294 293 292 295 297 298 298 298 298 298 297 298 299 300 301 301 300 297 300 296 297 297 297 300 299 301 302 304 305 304 305 304 303 302 303 301 298 299 301 300 297 296 297
298 297 297 296 296 297 297 295 295 295 294 293 293 292 294 297 297 297 298 297 297 297 297 299 299 298 298 300 300 300 299 299 300 294 293 297 299 298 301 302 303 300 304 303 303 302 298 296 297 296 296 296 296 295
298 298 297 297 297 297 296 296 295 294 294 293 293 292 294 296 297 297 297 297 297 297 297 298 301 301 300 300 299 298 300 301 301 301 298 297 299 294 299 300 302 302 299 300 301 299 297 295 295 294 294 294 294 294
296 297 297 298 297 297 296 295 295 294 294 293 293 292 292 295 296 296 296 296 296 295 294 299 300 301 301 301 301 299 301 300 299 299 299 295 298 299 299 299 300 300 297 298 298 298 296 294 293 292 292 293 292 292
296 296 297 298 297 296 295 295 294 293 293 293 292 292 292 293 295 296 296 296 296 296 294 297 298 301 301 301 301 301 300 300 300 298 293 295 298 296 297 298 300 297 296 294 289 295 295 294 293 292 292 291 291 291
296 296 296 296 296 296 296 294 293 292 292 293 293 292 292 292 293 294 293 294 295 296 296 293 297 299 301 300 300 300 301 300 300 299 299 299 299 298 291 299 298 296 295 296 296 294 293 292 292 292 292 291 290 289
295 295 296 296 296 296 295 293 292 292 291 291 293 292 292 291 292 293 294 295 295 296 295 294 295 300 300 300 300 300 300 300 300 299 298 297 298 299 293 299 296 295 295 294 294 294 292 291 290 290 291 290 289 288
294 294 294 296 295 296 295 294 292 292 291 292 293 292 291 291 292 294 295 294 295 296 296 291 294 300 301 301 300 300 300 299 298 299 298 297 298 297 294 296 296 295 294 293 293 292 292 290 289 289 289 288 287 286
292 293 293 294 295 295 295 294 293 291 291 291 291 291 290 290 291 293 295 296 295 296 295 295 293 294 300 299 299 298 298 296 296 295 296 296 291 293 291 295 294 294 293 293 292 291 289 289 287 287 287 286 285 283
292 292 292 293 294 295 294 294 293 291 291 291 291 290 290 290 292 294 296 296 295 296 295 296 297 297 300 297 296 297 298 295 296 296 298 293 290 289 290 290 290 291 291 292 291 288 287 287 285 285 284 283 282 281
291 292 292 292 294 294 294 294 293 291 291 291 290 291 291 294 294 293 293 294 295 295 295 295 295 294 300 295 292 298 297 297 299 297 298 296 293 289 288 289 289 289 288 289 289 287 286 285 284 283 283 281 280 280
288 290 291 292 293 293 293 293 292 291 291 291 291 291 293 293 292 293 293 294 295 295 294 294 295 297 300 300 298 298 298 298 301 299 300 295 287 287 288 287 286 286 285 285 285 285 284 284 283 282 281 280 280 279
288 289 290 291 292 293 293 292 292 292 291 292 292 292 292 292 291 292 293 296 295 295 295 296 292 298 301 300 296 295 299 298 296 296 293 287 286 286 286 286 285 284 284 283 283 282 282 282 281 280 280 279 279 279
287 288 289 290 291 292 293 292 292 291 291 291 291 287 288 291 291 289 291 291 296 297 298 299 299 301 300 296 289 290 292 298 298 298 292 285 286 286 285 285 285 284 283 282 281 281 281 280 280 280 279 279 278 278
287 286 287 288 290 290 292 292 291 291 290 291 291 288 285 292 294 295 296 295 297 298 299 300 298 299 294 297 297 294 298 299 294 292 283 287 287 286 285 285 284 283 282 281 281 280 280 280 279 279 279 278 277 277
288 287 286 287 288 290 291 291 291 291 290 291 290 289 292 291 292 293 296 297 297 298 298 300 294 293 296 292 298 297 297 293 289 282 287 287 286 286 285 284 283 282 281 281 280 280 279 279 278 278 277 277 277 276
288 288 286 286 287 289 291 291 291 291 290 290 290 291 292 292 292 294 295 297 298 298 297 298 295 298 295 297 298 297 295 285 287 287 288 288 287 286 285 283 282 281 281 280 279 279 278 278 278 277 277 277 276 276
289 288 286 287 288 289 290 291 290 290 290 291 291 292 292 293 293 293 294 295 297 299 299 295 297 295 298 296 289 285 287 286 288 289 288 287 286 285 284 283 282 281 281 280 279 279 278 278 278 278 277 277 277 276
288 288 286 287 289 291 290 290 290 290 290 292 291 292 292 293 291 292 292 294 295 297 298 297 289 289 289 291 291 291 290 290 288 286 286 286 285 284 283 282 281 281 280 280 280 279 279 278 278 278 278 277 277 277
288 287 286 287 289 291 291 291 291 291 291 291 291 291 291 291 292 292 292 293 295 297 297 291 288 295 296 296 296 296 295 291 289 286 284 283 283 282 282 282 282 281 280 279 279 279 279 278 278 278 278 277 277 276
288 287 287 288 290 291 291 291 290 291 291 290 290 290 291 290 291 291 291 292 294 296 292 296 297 297 296 296 295 294 293 291 290 290 287 283 282 282 282 281 281 280 280 280 279 279 279 279 279 278 278 277 276 275
288 287 288 289 291 291 291 292 292 291 290 291 291 291 290 289 290 291 292 292 293 295 295 296 297 297 296 295 294 293 292 290 289 288 287 285 283 282 281 281 280 280 280 280 279 279 279 279 279 278 277 276 275 274
287 287 288 289 290 291 292 292 291 291 289 289 291 290 289 291 292 291 291 291 293 293 294 295 295 295 293 292 291 290 289 289 288 287 286 285 284 283 282 281 281 280 280 280 280 280 279 279 279 278 277 276 275 274
287 289 290 290 290 290 291 292 292 291 291 289 289 285 288 290 290 289 285 290 292 292 293 293 293 292 290 290 289 289 288 287 286 285 284 284 283 282 282 281 281 280 281 280 280 280 280 279 278 277 276 275 275 274
290 290 291 290 292 290 286 286 290 290 282 283 288 282 286 289 282 281 283 288 290 290 290 290 290 291 291 290 289 287 286 286 285 284 284 283 283 282 281 281 280 281 281 281 280 280 279 278 278 277 276 275 275 274
288 291 291 290 291 289 288 286 285 283 282 283 283 287 289 279 283 284 284 287 287 286 287 288 289 289 288 289 289 287 286 285 284 283 283 283 282 282 281 281 280 281 281 281 281 280 279 278 277 276 276 275 274 274
289 290 290 290 291 292 291 291 291 287 284 283 279 279 280 282 280 282 286 286 285 286 286 286 286 288 288 288 287 286 285 285 285 285 284 282 282 282 282 282 281 281 281 280 280 279 278 277 277 276 276 275 274 274
289 289 285 289 289 289 289 286 286 285 282 287 286 282 281 280 279 282 284 285 285 286 286 286 286 286 286 287 286 286 285 284 284 283 283 282 283 283 282 282 281 280 280 279 279 278 278 277 276 276 275 275 274 273
287 287 288 284 287 287 285 284 283 285 285 286 280 276 280 280 280 282 284 285 284 284 285 285 284 284 285 285 285 285 285 284 284 283 283 283 282 282 282 282 281 280 280 280 279 279 278 277 275 275 275 274 274 273
287 287 285 283 283 282 283 284 283 283 283 283 283 281 280 279 279 281 283 284 285 284 284 284 285 284 284 284 284 284 284 284 284 283 283 282 283 282 282 281 281 281 280 280 280 279 278 276 275 274 274 274 273 273
286 286 284 283 281 282 281 282 282 283 283 283 282 281 280 279 279 280 282 283 283 284 284 285 285 285 285 285 285 284 284 284 283 283 283 283 282 282 281 281 280 279 279 279 278 276 275 274 273 273 273 273 273 272
286 286 284 278 280 281 282 282 283 283 282 282 280 280 280 280 277 277 277 279 281 282 282 282 283 284 284 284 284 284 283 282 282 282 282 281 281 281 280 278 277 276 275 275 274 274 274 273 272 272 272 272 271 271
285 284 282 281 280 281 282 283 283 282 282 281 281 280 278 276 273 273 273 274 276 278 279 280 281 281 281 281 281 281 281 280 280 280 279 279 279 278 277 277 277 276 275 274 273 273 273 272 272 272 271 271 271 271

GFSWCAN_850_thetae_126.txt.gz
Theta_e
299 297 298 297 297 296 296 294 296 295 294 294 293 294 297 298 298 298 298 298 299 299 299 300 300 300 300 299 296 299 296 297 296 296 299 299 300 302 302 304 305 303 304 302 302 301 300 297 298 299 298 297 296 295
299 298 297 297 297 296 296 295 296 295 294 294 293 293 296 297 298 298 298 298 298 298 298 299 299 299 298 300 299 299 298 298 299 294 292 297 299 297 301 301 301 299 302 302 302 301 298 295 296 295 294 295 294 294
298 298 297 297 296 297 296 297 296 295 294 293 293 292 296 297 298 298 298 297 297 297 297 297 299 299 299 299 299 298 299 300 300 300 297 296 299 294 298 299 301 301 299 300 299 299 297 294 294 293 293 292 292 292
298 297 297 297 297 296 296 296 296 294 293 293 293 293 296 297 297 297 297 296 296 297 298 299 299 301 301 301 299 300 300 300 299 299 297 294 298 298 298 299 299 299 298 297 298 297 296 293 293 292 292 292 291 291
297 297 297 296 296 296 296 296 295 294 293 293 293 292 295 296 296 296 296 295 296 296 295 298 298 299 300 301 300 299 300 299 299 298 292 294 297 296 296 297 293 297 296 294 297 295 295 293 292 292 291 291 290 289
296 297 297 297 296 296 295 295 295 293 293 293 292 292 292 295 296 295 295 295 295 295 297 295 297 298 300 300 300 300 300 300 299 298 298 298 298 297 291 293 296 296 296 296 295 294 293 292 291 291 291 290 289 288
296 296 297 297 297 296 295 294 293 293 293 293 292 292 292 293 295 293 293 294 294 295 295 294 296 300 300 300 300 299 300 300 300 299 297 297 297 299 295 297 296 296 295 294 294 294 292 291 290 290 290 289 288 287
296 296 298 297 296 296 294 293 293 292 292 293 292 292 291 292 293 294 294 294 295 295 295 290 294 300 300 300 300 300 300 299 299 299 297 296 297 296 291 295 295 295 294 293 293 293 293 290 289 289 288 287 286 285
295 296 296 296 296 295 294 293 292 291 293 293 292 291 291 292 294 295 295 294 295 295 294 293 295 296 300 299 298 298 298 296 296 295 296 296 291 297 292 296 295 294 294 292 291 290 289 288 287 286 286 285 284 282
294 295 296 296 296 295 293 292 291 292 293 292 291 290 290 292 294 295 295 295 295 295 295 295 296 298 299 297 295 296 297 296 296 295 297 293 297 290 291 292 292 292 292 292 291 287 287 287 286 285 284 283 282 281
293 293 294 294 295 295 293 292 291 291 291 291 290 291 292 294 294 293 293 293 294 295 294 295 295 297 299 294 294 296 297 298 298 297 296 293 293 290 289 290 290 290 290 290 290 289 287 286 285 284 283 282 281 280
292 292 294 294 294 294 294 293 291 291 291 290 291 293 294 293 292 289 290 293 294 295 294 294 294 296 299 299 296 297 298 298 299 297 298 293 286 287 288 288 288 287 287 287 286 286 285 284 284 283 282 281 280 279
291 292 293 295 294 294 293 292 291 291 291 292 292 292 291 291 287 289 291 294 294 294 294 294 292 297 299 298 296 297 298 297 296 297 293 289 287 286 287 287 286 285 285 284 284 283 283 283 282 281 281 280 279 279
290 291 292 293 294 294 294 291 291 291 291 290 291 288 286 290 290 288 292 293 294 295 295 297 296 299 299 294 288 289 292 296 298 298 292 284 286 287 287 286 286 285 284 283 283 282 282 281 281 281 280 280 278 278
289 290 292 292 293 293 292 292 291 291 290 290 290 284 287 290 293 294 295 294 295 296 296 298 297 298 292 293 296 293 294 292 292 291 286 288 288 287 286 286 285 284 283 283 282 282 281 281 281 281 280 279 278 278
289 289 290 291 293 292 292 291 291 291 290 291 290 289 290 288 289 293 294 294 296 297 297 298 293 289 293 291 297 296 296 291 288 284 291 289 288 288 287 286 285 283 283 282 281 281 281 280 280 279 279 278 277 277
286 288 288 290 292 292 292 291 291 291 290 290 289 289 289 290 291 293 293 295 297 297 298 297 293 294 294 297 296 297 290 286 292 293 291 290 290 288 287 285 284 283 282 282 281 281 280 279 279 278 278 277 277 277
286 286 287 289 291 291 291 291 291 290 289 290 290 291 292 292 293 293 292 294 295 297 298 295 296 294 296 295 289 287 292 293 292 291 291 289 288 287 287 285 284 283 282 281 281 281 280 279 279 278 278 277 277 277
287 286 286 287 289 290 290 290 290 289 289 291 290 291 292 292 292 292 292 293 295 295 296 296 289 289 289 292 293 293 294 294 292 290 289 288 287 287 286 284 283 282 282 281 281 280 279 279 278 278 277 277 277 277
287 286 287 289 290 290 290 291 290 291 290 291 291 291 291 292 292 291 291 292 293 295 295 290 289 296 297 298 298 297 297 294 292 289 287 287 286 285 284 284 283 282 281 280 279 279 279 279 278 278 278 277 277 276
287 287 289 289 290 290 291 290 290 290 291 290 290 290 290 290 290 291 291 291 292 294 293 297 298 298 298 297 297 296 295 294 294 293 291 287 285 284 283 283 282 281 281 280 280 280 279 279 278 278 278 277 277 276
288 287 287 289 290 290 290 291 291 291 290 290 290 290 290 289 290 290 291 291 292 294 295 296 297 298 297 297 296 295 294 293 292 291 290 289 286 284 283 282 281 281 281 281 280 280 280 279 279 279 278 277 277 275
287 287 288 289 290 289 290 291 291 290 289 289 290 290 289 290 291 291 290 291 292 292 293 294 295 296 296 295 295 294 292 291 291 290 289 287 286 285 284 282 282 281 281 280 280 279 279 279 279 279 278 277 276 275
287 288 289 289 289 287 291 291 291 291 290 289 288 287 286 288 290 289 286 289 289 290 291 291 292 292 293 293 293 292 291 290 289 288 287 287 285 284 283 283 282 281 281 281 280 280 280 279 279 278 278 277 276 275
289 289 290 284 288 289 288 285 289 290 285 286 286 282 287 289 282 281 282 286 287 286 286 288 289 290 291 292 291 290 289 288 288 287 286 285 285 284 282 282 281 281 280 280 280 280 280 280 279 278 278 276 275 275
281 289 288 288 289 288 288 285 284 284 281 284 285 286 287 279 284 284 283 285 285 285 285 285 285 286 288 289 290 290 289 287 286 285 285 285 284 284 283 282 281 281 280 280 281 281 280 280 279 279 278 276 275 275
285 286 290 290 291 292 289 290 290 286 284 283 279 278 280 283 280 282 284 284 283 285 285 286 285 285 286 287 288 288 287 286 285 285 284 283 283 283 282 282 282 282 281 281 281 281 280 280 279 279 277 276 276 275
289 289 287 289 289 290 290 289 290 289 287 287 285 283 280 281 278 280 282 283 284 284 284 285 285 285 285 285 286 286 286 285 285 285 284 283 282 282 281 281 281 281 281 281 281 280 280 279 278 277 277 276 276 275
287 288 288 285 287 287 287 286 286 286 286 286 283 277 279 278 278 280 282 283 284 284 284 284 284 284 285 285 285 285 285 285 285 284 283 283 282 282 282 282 282 281 281 280 279 279 279 278 278 277 277 276 275 275
287 287 287 284 282 282 284 284 283 283 284 284 283 280 278 277 277 279 281 283 284 284 284 284 284 284 284 284 284 284 284 284 284 284 284 283 283 282 282 282 282 281 281 280 280 280 279 279 279 278 276 275 275 274
286 286 285 284 282 282 282 282 283 283 282 282 282 281 279 277 277 278 279 280 281 282 283 283 283 283 283 283 284 284 284 284 284 284 283 283 283 282 282 282 282 281 281 280 280 279 279 278 278 276 274 274 274 273
285 284 283 282 281 281 281 282 282 283 282 281 280 279 279 278 276 275 275 277 278 280 281 281 281 282 282 281 281 281 282 282 282 282 282 282 282 281 281 281 280 279 279 278 278 278 277 275 274 273 273 272 272 272
283 283 282 281 280 281 281 282 281 280 281 280 279 278 276 275 271 272 272 273 274 275 277 278 279 280 280 280 280 280 280 280 280 280 280 280 280 279 279 278 278 277 276 275 274 274 274 273 273 272 272 271 271 271

GFSWCAN_850_thetae_129.txt.gz
Theta_e
298 298 298 297 297 297 297 297 296 295 294 292 294 297 297 298 298 299 299 300 301 300 299 300 300 300 299 298 300 298 299 298 299 301 302 302 303 303 304 304 304 303 303 302 302 302 303 296 298 299 296 297 295 294
298 298 298 298 297 297 296 296 296 295 294 293 293 296 297 298 298 298 298 299 301 300 299 300 300 299 299 299 298 298 297 298 298 299 298 300 302 301 302 305 302 304 302 302 301 301 297 296 295 294 294 294 292 292
298 298 297 298 297 296 295 296 296 295 294 294 292 295 297 298 298 298 297 297 299 298 298 299 299 298 298 299 299 298 299 300 299 299 297 299 301 299 303 301 302 301 300 301 300 298 296 295 293 293 293 292 291 290
298 297 297 296 297 296 295 296 295 294 294 293 293 295 297 297 297 297 297 297 297 297 299 298 300 300 300 299 299 299 300 299 299 298 298 299 300 298 300 300 302 300 299 299 299 297 295 294 293 292 292 291 290 289
298 298 297 296 296 296 296 296 296 294 293 294 294 295 297 297 297 296 296 296 296 297 297 297 299 300 300 299 300 299 299 298 299 298 298 299 297 299 298 299 299 297 298 299 299 296 296 294 292 291 291 290 289 288
296 297 296 296 297 296 296 296 295 295 294 293 293 295 296 296 296 295 295 295 297 299 299 298 297 299 300 300 299 299 299 298 299 298 297 297 297 297 299 299 296 296 296 296 296 294 294 292 291 290 290 289 288 287
297 297 296 296 296 296 296 295 294 293 294 293 292 294 295 296 296 293 293 294 295 296 297 296 298 299 299 300 299 300 300 300 299 298 297 297 297 298 297 299 297 296 295 295 294 294 292 291 289 289 289 288 287 286
297 297 296 296 296 296 295 294 293 293 293 292 292 292 294 295 293 293 294 294 295 296 296 296 297 300 300 300 299 299 299 299 299 298 297 297 297 296 297 295 296 295 294 293 293 293 293 290 288 288 287 286 285 284
297 297 297 297 296 296 294 293 293 293 292 292 291 292 293 293 294 295 294 294 295 295 294 294 298 300 300 298 298 298 298 299 295 297 297 296 296 299 296 296 296 294 294 292 291 290 289 288 287 286 285 284 283 281
296 297 297 296 296 294 293 293 294 293 292 291 290 290 291 295 294 294 295 295 295 294 295 295 295 300 299 296 295 297 296 297 296 296 296 297 299 291 293 295 295 293 293 292 291 288 287 286 285 285 284 283 282 281
295 296 296 296 295 294 294 291 293 293 291 290 291 291 294 294 294 293 293 294 294 294 294 294 295 298 297 297 296 295 298 298 297 298 299 298 298 291 290 292 292 292 291 291 290 290 288 287 286 284 283 281 281 280
296 296 296 295 295 293 292 292 293 291 291 290 293 294 293 293 292 291 292 293 294 296 293 294 295 297 298 298 297 296 298 298 299 297 299 299 294 287 288 290 290 290 289 289 288 288 287 286 284 283 282 281 280 280
295 295 295 295 294 292 292 292 292 291 292 293 293 292 291 291 288 290 291 294 294 293 293 293 295 297 298 297 297 298 298 298 295 299 298 297 289 286 288 288 288 287 286 286 286 285 285 284 283 282 282 281 280 279
293 294 294 294 294 293 291 291 291 291 291 291 291 289 286 288 289 290 293 293 293 294 294 295 294 296 297 294 293 296 296 297 297 296 297 293 288 286 288 288 287 286 285 285 284 284 283 283 282 281 281 281 280 279
292 292 294 294 294 293 291 291 291 291 290 290 290 286 289 289 291 293 293 294 295 296 295 297 296 297 294 294 295 294 295 294 295 296 294 291 290 289 288 287 286 286 285 284 284 283 282 282 282 281 281 280 279 279
291 292 293 293 292 291 291 291 291 291 290 290 289 288 288 289 290 292 293 293 295 296 296 297 294 293 296 295 297 296 295 295 295 292 293 292 290 289 289 287 286 285 284 284 283 282 282 282 281 281 280 279 278 278
291 291 291 293 292 291 291 291 291 291 290 290 289 289 289 290 291 292 293 294 295 296 298 298 295 296 294 297 296 296 294 293 293 294 294 293 292 290 288 287 286 285 284 283 282 282 281 281 280 280 279 278 277 277
290 291 291 292 292 291 291 291 291 290 289 289 289 290 291 292 292 293 292 294 295 295 297 297 295 295 294 296 294 293 294 294 294 294 293 292 290 289 288 287 286 285 284 283 282 281 281 280 279 279 278 278 277 277
289 290 291 291 291 291 291 290 290 289 289 290 289 290 291 292 291 292 291 292 294 295 296 295 292 295 294 293 294 295 295 296 295 293 292 290 289 288 288 286 285 284 283 282 282 281 280 280 279 278 278 278 277 277
286 287 289 290 290 290 290 290 291 291 290 290 290 291 291 291 292 291 291 291 293 294 294 294 292 296 297 298 298 298 297 296 295 292 290 289 288 287 287 286 285 284 282 281 280 280 279 278 278 278 278 277 277 277
287 288 289 290 290 290 290 290 290 290 290 290 290 290 290 290 290 290 291 291 291 293 293 296 298 298 298 298 297 297 297 296 296 295 295 291 288 287 286 285 283 283 282 281 280 280 279 279 279 278 278 278 277 276
288 289 289 289 290 290 290 290 291 290 290 290 290 290 290 289 289 290 290 290 291 292 293 294 295 296 297 296 296 296 296 295 294 293 292 291 289 288 286 285 283 282 282 282 281 281 280 279 279 279 278 278 278 277
287 287 288 289 290 288 289 290 290 290 287 288 289 289 288 289 290 290 289 289 289 289 289 291 292 293 294 295 295 295 295 294 293 292 291 290 289 288 287 285 284 283 282 282 281 280 280 279 279 279 279 278 278 277
287 288 288 289 289 286 289 290 291 290 290 289 288 288 287 288 289 288 288 287 286 286 286 288 289 290 291 292 293 293 293 292 291 290 289 288 288 287 286 285 284 283 283 282 281 280 279 279 279 279 279 278 278 277
287 287 289 284 287 287 288 283 287 290 287 287 288 287 288 288 286 285 285 285 285 285 284 285 285 286 287 289 290 291 290 290 289 289 288 287 287 286 285 284 283 283 282 281 280 280 280 279 279 279 279 279 278 277
283 288 287 286 286 287 287 286 287 287 284 285 287 284 286 285 287 286 284 283 283 283 283 284 284 285 285 286 287 289 289 288 287 287 287 286 286 285 285 284 283 282 282 281 280 280 280 280 280 280 280 279 278 277
284 283 289 290 291 291 289 289 289 287 286 286 284 282 284 284 283 282 282 282 282 283 284 283 284 284 285 285 286 286 287 287 286 285 284 284 284 284 283 284 284 283 282 281 281 280 280 281 280 280 280 279 278 277
289 289 287 289 290 290 290 289 289 289 288 287 286 287 286 284 283 279 280 281 282 283 283 283 283 284 284 284 285 286 286 286 285 284 284 285 283 282 282 282 281 281 281 280 280 280 280 280 280 280 279 278 277 277
288 288 288 286 288 287 287 287 286 287 286 287 287 282 278 276 276 278 279 281 282 283 283 283 283 284 284 284 285 285 285 285 284 284 285 284 283 282 282 281 281 281 281 281 281 280 280 280 279 278 278 277 277 276
287 287 287 285 282 283 284 284 283 283 284 284 283 279 277 275 275 277 278 280 282 282 282 282 283 283 283 283 283 283 283 283 283 283 283 283 282 282 282 282 282 282 282 281 281 280 279 279 279 279 278 278 277 276
286 286 285 284 282 282 282 282 282 282 282 282 281 280 277 275 275 276 276 277 278 279 281 281 282 282 282 282 282 282 282 282 282 282 282 282 283 283 282 282 282 281 281 281 281 280 280 279 278 278 278 277 276 274
284 284 284 281 281 281 281 281 282 282 281 280 279 278 276 276 274 273 273 275 276 278 278 279 280 280 280 280 280 280 280 281 281 281 282 281 281 281 281 281 281 281 281 280 279 279 278 278 277 277 276 273 273 273
282 282 281 281 280 280 280 281 281 279 279 278 276 276 275 274 270 270 270 271 273 274 275 276 276 277 278 278 279 279 279 279 279 279 279 279 279 279 279 279 279 279 278 277 277 276 276 275 273 273 272 272 271 271

GFSWCAN_850_thetae_132.txt.gz
Theta_e
298 298 298 298 298 297 297 297 296 294 292 295 296 298 300 301 299 299 300 301 301 302 300 302 301 301 301 302 303 301 301 301 303 306 306 307 307 307 307 306 306 306 307 306 305 306 307 299 301 304 298 297 296 295
298 298 298 298 298 297 297 297 296 294 292 294 296 298 299 299 299 299 300 301 301 301 300 299 300 299 300 299 301 299 301 302 302 305 305 305 306 306 306 307 305 305 305 306 305 305 299 298 297 296 295 295 294 294
297 299 298 297 297 297 297 297 296 294 293 293 296 297 298 298 298 298 300 301 301 300 300 300 299 299 298 298 298 301 300 301 301 301 303 304 306 305 306 306 305 302 301 303 302 299 298 297 295 295 294 293 292 292
297 298 298 298 297 297 296 297 295 294 294 293 294 296 297 298 298 298 299 299 300 301 302 299 299 299 299 299 298 298 300 299 299 301 302 303 304 302 304 304 304 303 302 302 301 299 297 296 295 294 293 292 291 289
297 298 298 297 297 296 296 296 295 294 296 294 295 296 297 297 297 297 297 298 298 301 302 300 299 299 299 300 299 299 299 300 300 301 302 303 301 302 302 302 303 301 302 301 303 299 298 296 294 293 292 291 290 290
298 297 297 296 296 296 296 296 294 294 293 294 295 297 297 296 296 296 296 297 299 300 300 302 298 299 299 299 300 300 300 300 300 301 301 300 299 301 302 302 300 299 299 298 297 295 295 293 292 292 291 289 289 288
297 297 296 296 296 295 296 295 295 294 294 294 296 297 297 296 295 294 296 297 299 298 300 301 301 299 299 299 300 301 301 301 301 300 300 300 300 301 301 301 300 298 297 296 295 294 292 292 291 289 288 287 286 285
297 297 296 295 296 296 296 295 295 295 293 293 295 296 296 296 292 294 295 296 297 297 299 302 301 300 300 300 300 299 300 300 299 300 299 300 300 300 301 299 298 297 296 295 294 294 294 290 288 287 286 286 285 285
297 296 296 296 296 296 294 294 294 293 292 292 294 295 294 292 294 294 294 295 295 296 299 301 302 303 300 300 300 300 299 300 298 300 300 300 301 301 301 298 297 296 296 294 292 291 290 289 287 286 286 285 285 283
297 296 296 296 295 294 294 293 293 292 291 292 292 292 294 294 294 294 293 294 295 296 297 300 299 301 300 300 299 299 299 300 300 300 299 300 301 296 296 298 297 296 294 292 292 290 289 288 287 286 285 284 283 282
296 296 296 295 295 294 293 294 292 291 292 290 291 293 294 294 293 294 296 297 296 297 297 297 300 300 299 301 300 299 299 298 299 301 300 301 302 297 294 294 294 294 293 293 292 292 290 289 286 285 283 282 281 280
297 297 296 295 294 293 293 293 292 291 290 291 295 294 293 293 293 296 296 296 297 298 296 299 300 300 298 299 300 298 298 299 301 299 301 302 302 293 292 290 292 292 291 290 290 289 288 286 285 283 282 281 281 281
297 296 296 294 293 293 293 293 291 291 293 294 293 292 293 292 294 295 295 296 297 296 295 297 299 299 299 299 298 299 299 301 300 300 300 303 295 291 291 289 289 289 289 289 287 287 287 286 284 283 283 282 281 281
296 295 295 294 293 292 293 291 292 293 291 291 293 292 293 293 293 294 296 297 295 296 295 298 297 300 299 299 298 299 299 299 300 300 301 302 294 290 289 288 287 288 288 287 287 286 285 284 283 282 282 281 281 280
295 295 295 294 291 293 291 292 292 291 290 291 292 293 293 291 293 293 293 295 294 295 296 298 299 300 300 299 299 298 298 299 300 301 302 298 292 289 288 287 288 289 287 286 285 285 284 283 283 282 281 281 280 280
294 294 294 292 292 291 291 291 291 290 290 291 291 293 291 294 295 294 294 295 295 295 297 299 300 301 300 300 299 299 299 300 302 301 297 293 291 289 289 289 289 287 286 285 284 284 283 283 282 282 281 280 279 279
293 293 293 293 291 291 291 291 291 290 290 291 291 291 292 293 293 293 294 294 295 297 300 300 300 300 299 299 299 299 300 301 299 296 294 293 293 291 291 290 288 287 285 284 284 283 282 282 281 280 280 280 279 278
293 292 292 291 291 291 291 291 291 291 291 290 293 291 291 293 293 293 293 294 295 296 297 299 297 298 300 299 300 300 299 296 295 295 294 294 292 291 290 289 288 286 285 284 283 283 282 281 280 280 279 279 278 278
291 292 292 291 291 291 291 290 290 291 290 290 290 291 291 292 292 292 291 293 294 295 295 297 298 299 299 298 300 299 296 295 295 294 294 293 291 291 289 288 287 285 284 284 283 282 282 281 280 279 279 279 278 277
291 291 291 292 291 290 290 290 291 291 292 291 290 290 291 292 292 291 291 291 292 294 296 297 300 300 300 298 296 297 297 297 296 294 292 291 290 289 288 288 287 285 283 282 282 281 281 280 279 279 279 279 278 278
290 290 290 290 290 290 290 291 291 291 290 291 290 291 292 291 292 292 292 291 292 293 296 297 297 295 296 296 296 296 296 296 296 295 294 292 291 289 287 286 286 284 283 282 281 281 281 280 280 279 279 278 278 278
288 290 289 289 290 290 291 290 291 290 291 291 291 291 292 292 292 291 291 292 293 293 290 290 290 293 294 295 295 295 295 295 294 294 293 293 291 289 288 287 286 284 283 283 282 282 282 280 279 279 278 278 278 277
289 289 289 289 289 289 290 290 291 291 292 291 290 291 291 291 291 289 291 290 289 287 287 288 289 290 291 293 294 294 294 294 293 292 292 291 290 289 288 287 286 285 283 283 282 282 281 281 280 279 278 278 278 278
288 288 288 288 289 289 289 291 291 291 291 291 292 291 291 291 289 291 292 290 286 286 285 285 284 286 288 290 291 292 292 292 291 291 290 290 289 288 287 287 286 285 284 283 283 282 281 280 280 279 278 279 279 278
287 287 289 287 288 289 290 291 291 292 292 291 291 292 291 289 292 291 291 288 286 284 283 283 284 284 285 286 287 289 290 290 289 289 289 288 288 287 286 286 285 284 284 282 282 282 281 280 280 279 279 279 279 279
288 288 289 289 289 290 291 291 291 292 291 291 291 288 288 291 291 291 287 284 283 282 281 281 281 282 284 285 285 286 287 288 288 288 287 287 287 286 286 285 285 284 284 283 282 281 281 280 280 279 279 279 279 279
289 290 289 289 291 292 292 291 290 291 291 291 291 289 290 291 291 285 281 281 281 282 282 282 282 281 282 283 284 285 286 287 287 286 286 285 284 284 284 283 284 283 283 283 282 282 281 280 280 280 280 280 280 280
289 289 291 290 291 290 292 292 292 292 293 289 289 290 291 289 286 277 277 280 281 282 282 282 282 283 283 284 284 284 285 286 285 285 284 284 284 283 283 283 282 282 281 281 281 281 281 280 280 280 280 280 280 279
289 288 289 288 289 290 290 291 291 287 286 288 291 287 281 275 275 277 278 279 280 281 282 282 282 283 283 283 283 283 284 283 283 283 284 283 282 282 282 282 281 281 281 281 281 280 280 280 280 280 280 280 279 278
288 288 288 287 288 290 287 285 284 284 284 284 282 278 275 273 274 276 277 278 279 280 280 281 281 282 282 282 282 282 282 282 282 282 282 283 283 282 282 282 281 281 281 281 281 281 281 280 280 280 279 279 278 277
286 286 287 286 287 283 282 283 283 283 282 281 280 279 276 272 273 274 275 276 276 277 278 279 279 280 280 281 281 281 281 281 281 282 282 282 282 282 282 282 282 282 282 282 282 281 281 280 280 279 278 278 278 277
284 286 286 285 284 281 281 281 282 282 280 280 278 276 274 275 273 271 272 274 274 275 276 277 277 278 278 278 279 279 279 280 280 280 280 280 281 281 281 281 281 281 281 281 280 280 279 279 278 277 277 276 276 275
282 282 282 283 282 282 280 282 282 281 280 279 275 274 272 274 271 268 270 271 272 273 274 275 275 276 277 277 278 278 278 278 278 278 278 278 278 278 278 278 279 279 279 278 278 277 277 276 276 275 274 273 272 272

GFSWCAN_850_thetae_135.txt.gz
Theta_e
296 299 299 299 298 298 298 297 296 295 293 294 296 297 299 300 300 300 301 304 305 305 305 305 305 304 304 304 305 303 303 303 304 308 309 308 309 309 309 309 309 309 309 309 308 308 309 302 303 305 301 299 298 297
297 298 299 298 298 297 297 296 295 296 294 294 297 299 300 301 300 300 302 302 304 305 303 302 302 302 303 304 305 303 304 303 305 308 308 308 308 309 309 309 307 309 308 310 308 307 302 301 300 298 298 297 296 296
296 299 299 298 298 297 297 296 295 292 293 295 297 299 299 300 299 300 302 303 303 303 303 303 302 300 299 301 302 303 303 304 304 306 307 308 308 309 308 310 307 305 304 306 305 303 301 300 298 297 296 295 294 294
296 298 298 298 298 297 297 297 295 294 293 295 297 298 298 298 298 300 302 303 303 303 303 301 301 300 301 300 301 303 303 303 303 304 305 307 307 306 307 308 308 306 304 304 303 302 300 299 297 296 294 293 292 292
297 299 298 298 297 297 297 297 296 293 293 294 296 297 298 298 297 299 300 302 303 304 303 302 301 301 301 301 301 302 302 302 302 304 306 305 304 305 305 305 307 304 305 304 306 301 301 299 296 295 294 293 292 292
297 298 298 297 297 297 296 296 294 294 295 294 296 297 297 297 297 299 300 297 301 302 302 303 301 301 301 301 301 301 302 302 302 303 304 303 302 305 305 305 303 302 301 301 300 299 299 296 296 294 293 292 291 290
297 298 298 298 297 296 296 296 295 296 295 295 296 296 296 296 296 298 300 300 301 302 302 302 302 301 301 301 302 302 302 302 302 302 303 303 302 303 304 305 302 300 299 299 298 296 295 295 294 292 291 290 289 288
297 298 297 297 296 297 295 295 294 294 294 296 296 296 296 296 294 297 298 297 298 302 303 304 302 301 302 301 301 301 302 302 302 302 302 303 302 303 304 302 300 299 298 297 296 296 296 293 291 290 290 289 289 288
298 297 296 296 296 296 295 295 295 294 295 296 296 296 294 295 298 297 295 296 296 302 303 303 303 304 302 302 301 301 301 302 300 302 302 303 304 304 303 301 299 299 297 296 296 295 293 292 290 290 289 289 288 287
297 296 296 296 295 296 295 295 295 293 295 295 294 293 293 294 294 294 294 296 300 299 301 304 303 303 302 302 301 301 300 301 301 302 301 302 304 302 301 300 299 299 298 296 295 294 293 292 291 290 289 288 287 286
296 296 296 296 296 295 295 294 294 293 294 292 292 295 294 294 297 297 298 299 298 300 300 301 301 302 301 303 302 301 301 300 302 303 301 303 304 301 300 300 298 298 296 296 296 295 294 292 291 289 287 286 285 284
296 296 296 295 295 294 293 292 292 293 292 293 294 294 293 296 297 300 299 298 299 300 299 301 301 301 301 302 301 300 300 300 303 302 301 304 305 299 299 298 297 296 296 295 294 294 293 291 289 288 286 284 283 282
296 295 295 294 294 294 293 291 292 292 294 294 294 292 297 295 298 298 297 298 300 298 298 300 302 301 301 300 300 301 301 303 301 302 302 305 300 298 297 295 294 294 294 293 292 290 289 288 287 285 284 283 284 283
296 295 295 294 293 293 292 291 293 293 294 295 295 295 297 296 296 297 299 300 297 298 299 300 300 301 301 300 300 300 302 301 301 302 304 305 298 297 295 293 293 292 291 289 289 288 288 288 286 285 284 284 283 282
296 295 294 293 293 292 291 293 291 291 294 294 295 296 295 294 295 294 296 297 296 297 299 301 301 301 302 300 301 300 300 301 302 303 305 302 297 295 293 292 291 289 290 289 288 288 287 286 285 284 283 283 282 281
295 294 293 292 293 291 292 291 291 292 293 293 294 294 294 296 296 295 296 296 296 298 299 300 301 302 302 301 301 301 301 302 304 304 302 297 294 293 291 290 289 290 290 288 287 286 286 285 284 283 283 282 281 281
294 294 292 293 292 292 292 293 293 292 292 294 294 294 295 296 295 295 296 295 295 298 302 300 301 301 301 301 301 301 303 304 303 300 299 296 294 292 291 289 290 290 288 287 286 285 284 283 283 282 282 281 281 280
294 293 292 292 291 292 291 293 292 292 293 294 295 293 293 294 294 294 294 295 297 298 299 300 299 300 301 301 301 303 302 301 298 298 296 294 293 292 291 291 290 289 287 286 285 285 284 283 283 282 281 281 280 280
293 293 292 291 291 292 293 293 293 293 293 293 293 293 293 294 293 294 294 295 295 295 298 299 300 301 301 301 302 302 301 300 299 295 294 293 292 292 291 290 289 288 287 286 285 284 283 283 282 281 281 280 279 279
292 292 291 291 292 293 292 293 293 292 293 293 293 293 294 294 294 292 294 294 295 297 297 298 300 300 298 297 296 298 298 298 296 295 292 292 292 291 290 290 288 288 286 285 283 282 281 282 281 281 281 280 280 281
292 291 291 291 292 293 292 293 293 293 292 294 293 293 294 293 294 295 295 294 294 295 297 298 295 294 294 295 295 295 294 294 296 297 298 292 291 290 289 289 287 287 285 283 283 282 282 282 282 281 281 280 280 281
291 291 292 291 292 292 292 292 293 293 293 293 293 293 294 293 294 293 293 294 295 295 291 291 290 290 291 292 294 294 294 294 294 294 293 293 292 289 287 287 286 285 285 284 284 283 282 282 282 281 281 280 280 280
289 290 290 290 290 291 291 292 293 293 294 293 292 293 293 293 293 291 293 293 291 289 288 287 287 289 290 291 292 293 293 293 292 291 292 291 290 289 288 287 286 285 285 285 284 284 283 282 282 281 281 280 280 279
289 289 289 290 292 291 291 292 292 293 293 293 293 293 293 293 291 292 293 292 289 287 287 286 286 288 289 290 291 291 289 290 290 290 290 289 290 289 288 287 286 285 285 286 284 284 283 282 281 280 281 280 280 279
289 289 290 290 290 291 292 292 292 293 293 293 293 293 293 291 293 293 293 290 288 286 284 284 285 286 286 287 288 288 288 288 289 289 288 288 288 288 286 286 285 285 284 284 284 283 282 282 281 281 280 280 280 279
290 290 291 291 291 292 292 292 292 293 293 293 293 292 291 293 293 294 290 287 285 283 281 281 282 283 285 285 285 286 285 286 286 287 287 286 286 286 286 286 285 284 283 283 283 282 282 282 281 281 280 280 279 279
291 292 291 290 292 292 293 293 292 293 294 293 294 292 293 293 294 288 283 279 280 279 279 279 280 281 282 282 282 283 284 285 286 286 286 285 285 284 284 285 285 284 284 283 282 282 282 282 281 281 280 280 280 279
291 291 292 291 292 292 293 294 294 294 295 292 292 293 293 292 288 280 278 278 280 281 279 279 280 281 281 282 283 283 283 284 285 285 284 284 284 284 283 283 283 283 282 282 282 281 281 281 281 281 280 280 280 280
290 290 291 291 291 292 293 293 293 289 287 291 294 291 284 277 274 274 276 278 278 277 278 278 279 281 280 281 282 283 282 282 283 284 285 285 284 283 282 282 281 281 281 281 281 281 280 280 280 280 280 280 280 280
290 290 291 290 291 292 290 287 288 284 284 284 283 280 278 274 272 274 274 275 276 276 277 277 278 279 279 280 281 280 281 281 282 282 283 282 282 282 282 282 282 281 281 281 281 281 281 280 280 280 280 280 280 279
288 288 289 289 290 288 285 283 284 283 283 283 282 283 279 274 272 274 275 275 273 275 276 275 275 278 279 279 279 279 279 280 280 281 281 281 281 281 282 282 282 282 282 281 281 281 281 281 281 280 279 278 278 278
287 288 289 289 288 283 282 284 285 285 284 284 281 278 277 278 276 272 272 273 272 272 275 275 275 276 277 277 277 278 278 278 279 279 279 279 279 279 279 280 280 280 280 280 280 280 279 279 278 278 277 277 276 276
285 286 286 286 286 285 284 285 285 284 283 282 279 278 276 277 274 270 269 271 272 271 274 274 275 275 276 276 276 277 277 277 277 277 277 277 277 277 277 277 278 278 278 277 277 277 277 276 276 276 275 274 273 272

GFSWCAN_850_thetae_138.txt.gz
Theta_e
296 297 298 299 299 298 298 297 296 295 295 294 296 298 299 300 299 302 302 306 306 306 306 306 306 306 306 306 306 304 305 305 307 309 310 310 311 310 311 310 309 309 310 310 310 310 310 304 305 306 302 299 299 297
295 296 299 299 298 298 297 298 296 295 293 295 296 298 298 299 300 301 303 305 306 305 304 304 304 304 305 306 305 303 305 304 305 310 310 311 311 312 311 311 308 310 310 311 309 307 303 302 302 301 300 298 297 297
295 296 299 299 299 298 297 297 296 295 294 295 297 299 298 299 299 303 304 305 304 304 304 304 303 303 304 305 305 304 305 305 306 307 310 311 309 310 312 310 308 308 307 309 306 304 302 300 299 298 298 297 296 296
295 296 299 298 298 297 297 296 294 293 293 295 298 299 299 299 299 303 304 304 304 304 305 302 302 303 302 303 304 304 305 304 306 307 307 309 309 308 310 310 309 307 306 306 304 303 300 299 298 296 295 295 294 294
296 296 299 298 298 297 297 296 294 293 294 296 297 298 298 298 299 302 303 304 304 304 304 303 302 302 302 302 303 302 304 304 305 306 309 308 305 307 307 308 308 306 307 306 307 302 302 299 297 296 295 294 293 293
296 297 299 298 298 297 297 296 294 294 294 296 297 297 298 297 300 302 302 302 303 302 302 303 302 302 302 302 303 303 303 303 304 305 306 305 305 307 308 306 305 304 304 303 302 301 300 298 297 295 294 294 293 292
296 298 298 298 297 296 296 297 294 294 294 296 296 297 297 297 300 301 302 303 303 303 302 302 302 302 302 302 303 303 303 304 304 303 304 303 302 304 307 307 303 301 301 301 300 299 297 297 295 294 293 291 290 289
298 298 298 297 297 297 296 295 294 295 295 296 297 296 295 295 296 299 301 302 303 304 304 304 302 302 303 302 302 303 303 303 303 303 303 304 302 304 306 304 301 300 299 298 298 298 297 295 294 293 292 291 290 289
297 298 297 297 297 296 296 295 295 295 296 297 296 296 296 299 299 296 297 299 302 303 304 304 303 302 303 303 302 302 302 304 302 304 304 304 305 305 304 303 301 300 298 297 297 296 294 293 292 291 291 291 290 288
298 298 297 297 296 295 294 295 295 296 296 296 295 294 294 295 296 296 297 297 302 301 303 305 303 303 302 303 303 302 302 303 303 303 302 303 305 304 303 302 300 300 299 297 296 295 294 293 292 291 291 291 290 288
297 298 297 296 295 295 295 295 295 296 295 295 293 295 295 296 299 298 298 301 300 301 302 303 303 304 303 304 303 302 303 302 303 303 303 303 304 304 301 301 300 300 299 298 297 296 295 294 293 292 291 289 288 286
296 296 296 296 296 295 295 294 294 294 294 295 295 294 295 298 299 301 300 299 300 301 301 303 303 302 303 302 302 301 301 301 304 302 302 303 306 303 301 300 300 298 298 297 297 296 295 294 292 291 289 287 286 285
296 296 296 296 295 295 294 294 293 292 294 294 294 294 298 296 299 299 298 299 301 300 301 302 303 302 302 301 301 303 302 303 302 303 302 306 303 301 301 299 298 297 297 296 295 294 293 292 290 289 287 286 286 285
296 295 295 294 292 292 292 292 294 294 294 296 296 296 299 298 298 301 302 302 299 299 301 302 302 302 301 301 302 302 303 303 302 302 304 306 301 300 299 297 297 296 295 294 293 292 291 291 289 288 287 286 285 284
295 295 294 293 293 292 292 294 292 293 294 295 296 297 297 296 296 296 298 298 298 300 301 301 302 302 302 300 302 301 301 301 302 304 307 302 299 298 296 296 295 294 294 293 292 291 290 289 288 288 286 285 284 283
294 294 294 293 292 293 291 292 292 293 294 294 296 295 296 297 296 296 297 296 297 300 300 301 302 303 302 303 301 301 301 302 305 306 302 299 297 296 295 294 294 293 292 291 291 290 289 288 288 286 285 284 283 283
294 294 293 292 292 292 294 296 294 293 294 295 295 295 296 296 297 296 297 296 297 299 301 301 301 301 302 301 301 302 304 305 302 301 300 298 296 295 294 293 292 292 291 291 290 289 288 287 286 285 284 284 283 282
294 293 293 292 292 293 294 294 293 294 295 296 295 294 295 295 295 295 296 297 298 299 300 301 301 301 301 301 302 304 303 301 300 299 297 295 294 293 293 292 292 291 291 290 289 288 287 286 285 284 283 283 282 282
292 293 292 293 294 294 294 294 294 294 294 294 293 294 294 294 295 295 295 296 296 297 299 299 301 301 302 301 301 301 300 301 299 296 294 294 293 292 291 290 291 291 289 289 288 287 286 286 285 284 283 282 282 281
292 292 292 292 294 293 293 294 294 293 294 294 294 295 295 295 293 293 295 296 296 298 298 299 301 296 296 295 296 296 296 298 297 296 293 293 292 291 290 291 291 289 288 287 286 285 284 284 284 283 282 282 282 281
293 292 292 293 294 294 294 294 294 293 293 294 294 294 294 294 295 296 296 295 295 296 298 295 294 293 294 293 294 295 295 295 298 298 299 295 293 291 289 290 288 287 286 286 285 284 283 284 284 283 283 282 282 281
291 291 292 292 293 293 293 294 294 294 294 294 294 294 295 294 294 295 294 295 295 294 292 291 290 291 291 291 292 293 294 294 294 293 293 294 294 290 289 288 287 286 286 286 285 285 285 284 283 283 282 282 282 281
292 292 292 291 292 292 292 294 293 294 294 294 294 294 294 294 294 293 293 294 292 290 289 289 287 288 289 290 291 291 292 293 293 293 293 292 292 291 291 289 288 287 287 286 286 285 285 284 283 283 283 282 282 281
290 289 290 292 292 291 292 293 293 293 294 294 294 293 294 294 292 292 293 294 290 289 287 286 287 288 289 290 290 290 290 289 290 291 291 291 291 291 290 289 288 287 287 287 287 286 285 285 284 283 283 282 281 281
291 289 292 291 292 292 293 293 293 293 293 293 293 293 294 292 293 294 294 291 289 286 285 284 285 286 286 287 287 287 288 287 288 289 290 290 289 290 289 288 288 287 286 286 286 286 285 284 284 283 282 282 282 281
291 290 292 292 292 293 293 293 293 293 293 293 293 294 293 293 293 295 291 287 285 283 282 281 282 283 285 284 284 285 285 285 286 287 288 287 287 288 287 287 287 286 285 285 285 285 284 284 283 283 282 281 281 281
291 292 291 291 292 292 293 293 293 294 294 293 294 293 293 293 295 288 283 280 281 279 279 280 281 281 281 282 282 282 283 284 285 286 286 286 285 285 285 286 286 286 285 285 284 283 284 283 283 282 282 281 281 281
291 291 292 292 292 293 293 294 294 294 294 294 294 294 294 291 287 281 278 279 280 280 279 280 280 281 281 282 282 282 283 283 284 284 285 285 284 284 283 283 283 283 283 283 282 282 282 282 283 282 282 282 281 281
291 291 291 292 292 292 293 294 294 290 289 292 294 292 285 278 276 276 277 278 278 278 278 279 279 281 282 283 282 281 281 282 284 285 286 286 284 282 282 282 281 281 281 281 281 281 281 281 282 282 282 281 281 281
291 290 291 292 291 292 291 289 289 287 286 286 285 281 278 275 274 275 275 276 276 276 276 277 278 279 279 281 280 279 280 281 282 282 281 281 281 281 282 282 281 281 281 281 281 281 281 281 281 280 280 280 280 280
289 289 290 291 291 290 287 285 285 285 285 284 284 284 279 274 273 274 275 274 274 274 275 275 275 277 277 277 278 278 278 279 279 280 280 280 280 281 281 281 281 281 281 281 281 281 281 280 280 280 280 280 279 279
289 290 291 291 290 286 285 286 287 287 285 284 282 280 278 279 277 272 271 272 272 272 272 273 273 274 275 275 276 276 276 277 278 278 278 278 278 278 278 278 278 279 279 279 279 279 279 279 279 279 279 278 278 277
287 288 288 288 288 287 286 286 287 287 286 284 281 280 277 278 275 271 270 271 270 270 272 273 274 274 274 274 275 275 275 275 277 277 277 277 277 277 277 277 276 276 276 276 276 277 277 277 277 276 276 275 274 274

GFSWCAN_850_thetae_144.txt.gz
Theta_e
296 296 296 296 298 299 300 297 297 297 297 297 297 298 299 299 299 301 302 303 304 303 305 306 306 305 305 305 303 304 304 304 304 305 304 305 306 306 307 308 308 308 308 306 306 308 308 304 304 304 297 298 298 297
296 296 296 296 297 299 298 297 297 296 297 295 296 298 299 299 299 301 303 303 303 304 304 305 305 305 304 305 304 304 304 304 304 304 304 305 307 305 307 308 308 307 306 305 305 302 300 301 303 301 300 298 297 297
295 296 296 296 297 299 298 298 297 296 296 294 296 298 299 299 300 301 300 303 303 303 303 304 304 304 305 305 305 304 304 304 306 306 305 305 309 304 307 306 306 306 304 301 301 299 298 299 299 299 299 297 296 296
294 294 295 297 297 298 298 297 297 295 293 295 297 298 299 299 300 301 302 303 303 302 301 301 304 305 305 305 305 304 304 304 306 307 305 305 306 306 306 305 305 305 303 301 300 298 298 298 298 297 297 296 295 295
294 295 296 297 297 298 297 297 297 295 294 295 297 298 299 299 300 300 302 304 303 303 302 301 302 303 304 304 304 304 304 306 305 305 300 302 303 304 304 303 301 304 301 299 299 298 297 296 296 296 295 295 294 294
294 295 296 298 298 297 297 296 296 294 295 296 298 299 298 299 300 301 301 302 302 302 302 302 302 302 303 303 303 303 304 304 305 304 302 303 303 303 300 302 303 303 303 303 300 299 299 297 296 295 294 294 293 292
294 295 296 298 298 297 296 295 296 294 296 296 298 297 298 301 301 301 302 302 301 301 302 300 301 302 303 303 303 303 304 304 304 303 302 301 302 303 299 303 301 302 303 302 301 299 296 296 295 294 294 293 292 291
295 296 297 297 297 296 295 292 293 296 296 297 297 298 299 300 302 302 303 303 302 301 301 299 301 301 302 302 302 302 302 302 302 302 302 299 301 301 299 301 300 300 300 299 298 299 298 296 295 294 293 293 292 290
295 297 298 297 297 296 294 293 296 296 296 296 297 298 299 300 302 301 302 303 303 302 300 298 298 298 302 302 301 301 302 295 301 298 300 300 297 299 300 300 299 299 299 298 298 298 296 295 294 294 292 292 291 289
296 298 297 297 297 295 294 294 295 296 296 297 296 295 295 297 300 299 298 297 300 303 303 299 301 299 301 301 299 299 300 295 297 298 301 296 298 302 301 301 301 300 299 298 297 295 295 295 294 293 292 291 291 290
297 297 296 296 296 296 296 295 295 295 296 296 294 295 298 299 299 297 299 298 300 299 302 301 302 300 302 297 296 298 292 295 298 298 296 296 298 299 300 300 300 299 298 297 297 296 296 296 294 292 291 290 290 289
296 296 295 295 295 296 295 296 296 296 296 294 296 298 297 297 298 297 295 297 298 299 301 300 302 302 302 301 298 298 295 295 302 297 293 296 297 302 301 300 299 298 297 297 296 295 295 294 293 292 291 290 290 289
296 296 296 295 295 295 295 295 295 295 295 295 295 295 295 296 293 293 293 297 296 299 301 302 298 301 300 300 296 292 292 294 297 290 295 296 300 300 300 300 299 299 298 297 296 295 295 293 293 292 291 290 290 289
295 295 294 295 294 294 294 294 294 294 294 295 295 291 290 291 296 298 299 296 299 301 301 302 301 300 300 297 294 293 297 295 291 292 297 294 300 300 300 299 299 298 297 297 297 296 295 294 293 292 291 291 290 288
295 294 294 295 294 293 293 293 294 294 294 295 295 292 291 295 296 297 298 298 300 301 301 300 299 300 295 294 297 294 293 294 295 296 296 301 300 299 299 299 298 298 297 297 296 296 295 294 293 293 291 290 289 288
294 294 295 294 294 293 292 293 293 294 294 295 295 294 295 295 295 296 296 298 300 301 300 300 296 295 296 295 298 294 297 294 297 299 300 300 299 299 299 298 298 297 297 296 296 295 294 294 293 292 291 289 288 287
294 293 294 293 293 293 293 293 293 294 294 294 295 295 295 295 295 296 296 297 300 299 294 297 296 299 297 297 298 296 296 300 298 299 298 299 299 299 299 298 297 297 296 296 295 294 294 293 292 291 290 289 288 287
293 293 294 294 294 293 293 294 294 294 293 294 294 294 294 295 295 296 296 297 299 299 298 298 299 298 294 298 298 299 296 297 297 296 296 296 297 297 297 296 296 296 296 295 294 294 293 292 292 291 290 288 287 286
294 294 294 294 293 293 294 293 293 294 293 294 294 294 294 295 295 296 297 298 298 298 298 299 297 296 294 294 295 295 296 297 296 293 292 293 293 295 294 294 294 294 293 293 293 292 292 291 291 289 288 287 286 285
293 294 294 294 293 293 294 294 294 294 294 294 295 294 293 294 295 295 296 296 297 298 297 297 293 292 293 292 293 295 295 296 295 295 293 293 293 292 293 292 292 292 291 291 290 290 290 289 288 287 286 286 285 285
293 293 293 292 294 294 294 293 293 293 294 294 294 294 294 295 295 295 295 295 295 293 294 292 291 292 291 291 291 293 294 295 295 295 293 295 293 293 291 290 291 291 291 290 289 289 289 288 287 286 285 285 284 284
292 293 292 291 291 293 294 294 293 294 294 293 294 294 294 294 294 293 293 294 292 290 291 290 290 290 290 290 291 291 292 292 292 292 293 293 293 292 292 291 290 289 287 288 288 287 287 286 286 285 284 284 283 283
292 292 291 291 291 292 293 293 293 293 290 293 293 292 291 293 293 293 292 290 289 289 289 288 288 288 289 289 289 289 289 290 291 292 292 292 292 292 291 291 290 290 289 288 288 287 287 286 285 285 284 284 283 282
292 290 290 291 290 288 292 293 293 293 293 291 290 288 289 292 291 291 286 288 286 287 287 286 287 288 288 288 288 288 288 288 288 289 290 291 291 291 291 291 290 290 289 288 288 287 287 287 286 285 285 284 283 283
290 289 290 288 291 290 282 282 285 288 285 286 286 284 286 291 282 282 286 285 283 284 285 284 285 285 285 285 285 285 285 286 286 286 287 288 289 290 290 290 289 288 288 287 287 286 286 286 286 286 285 285 284 283
284 289 287 290 289 286 286 284 282 283 282 284 283 292 292 282 282 284 284 282 282 283 282 282 282 282 282 282 282 283 283 283 284 284 285 286 287 287 287 287 287 287 287 286 286 286 285 285 285 285 285 285 284 284
282 284 291 291 292 292 289 292 292 286 282 282 282 285 284 288 281 281 281 281 281 281 280 280 281 281 281 281 281 282 282 283 283 283 283 284 284 285 285 285 285 285 285 285 284 285 284 284 284 284 285 284 283 283
290 291 284 291 292 292 283 282 282 283 281 291 290 283 284 280 279 278 278 278 279 280 280 280 280 281 281 281 282 282 282 283 284 283 283 282 283 283 283 282 282 282 282 282 282 282 282 281 282 283 283 283 283 282
290 290 290 289 291 291 291 286 287 288 288 289 288 282 278 277 276 276 277 277 278 279 279 279 279 280 280 280 281 281 282 283 284 283 282 281 281 281 281 281 281 281 281 282 281 281 281 281 281 282 282 282 283 282
290 289 290 289 281 282 288 290 289 287 287 286 284 279 276 274 274 275 276 276 277 277 277 277 277 278 279 279 279 279 280 280 280 281 281 281 280 280 280 281 281 281 281 281 281 281 281 281 281 281 281 281 281 281
289 288 289 289 287 288 288 287 286 285 285 284 283 281 275 273 273 273 274 274 274 275 275 276 276 276 276 276 277 277 278 278 278 278 278 278 278 279 279 279 279 279 279 279 280 280 281 281 281 280 280 280 280 280
289 289 289 286 286 286 286 286 286 285 284 282 279 277 275 274 272 272 271 272 272 273 273 273 273 274 274 274 274 275 275 276 276 277 277 277 277 277 277 277 277 277 277 277 278 278 279 279 279 280 279 278 278 277
288 288 288 287 286 285 286 286 287 284 282 280 279 277 275 274 271 270 270 270 271 272 272 273 272 272 273 273 273 273 274 275 275 275 276 276 276 276 275 275 275 275 275 276 276 276 276 277 277 276 276 275 275 274

GFSWCAN_850_thetae_147.txt.gz
Theta_e
297 297 296 296 296 296 298 299 298 297 296 297 297 297 298 298 299 299 300 301 302 303 303 305 304 306 306 304 303 304 304 304 303 305 305 305 306 306 307 307 307 308 308 307 307 308 309 304 303 304 299 298 299 298
296 296 296 296 296 297 299 299 297 296 297 297 297 298 298 298 299 299 300 301 302 302 304 305 306 306 305 306 305 304 304 303 304 304 302 304 307 305 306 309 306 305 305 305 305 304 300 301 302 302 301 300 298 298
296 296 296 296 297 299 299 299 297 297 297 295 295 297 298 299 299 299 300 301 302 302 303 304 305 305 305 305 305 304 304 304 304 305 304 305 308 301 306 306 306 304 303 301 302 300 298 300 300 300 300 299 298 298
296 296 296 296 297 299 298 298 297 297 296 294 295 297 297 299 299 299 300 301 302 302 301 302 304 304 305 305 304 305 305 304 305 306 305 305 306 305 306 305 305 304 302 299 299 297 297 297 299 299 298 297 296 295
295 296 296 296 297 297 298 298 297 296 294 294 297 297 298 299 299 299 301 302 302 302 301 301 303 304 304 305 304 304 304 304 304 304 300 303 304 305 303 302 302 303 299 299 298 298 298 297 297 297 297 296 295 295
295 295 296 297 297 298 298 297 296 295 294 295 296 298 299 299 299 299 300 301 302 301 302 301 301 302 304 305 305 304 304 305 305 303 302 303 305 304 304 301 303 303 302 303 300 299 299 298 297 297 296 295 295 294
295 295 296 297 298 298 297 296 296 294 294 295 296 298 297 300 300 300 302 302 302 301 301 299 301 302 302 303 303 303 304 303 303 302 301 301 301 302 301 303 302 302 302 302 301 299 295 296 295 295 295 294 293 293
295 295 297 297 297 297 297 297 296 294 295 296 297 299 299 300 300 301 302 302 301 301 301 298 299 301 302 302 301 302 302 302 302 300 301 299 300 300 299 300 301 300 300 299 299 300 298 296 294 294 294 293 292 291
295 296 297 297 297 296 294 295 294 295 296 298 298 299 301 300 301 301 302 303 303 301 299 297 298 299 302 301 301 301 300 296 300 297 298 299 297 299 299 300 299 299 300 298 298 299 297 296 294 294 294 292 292 291
295 296 298 297 296 294 293 296 296 296 297 296 296 296 296 300 299 300 298 297 302 303 302 297 300 300 300 299 298 298 298 294 296 297 299 295 296 301 302 302 302 300 300 299 297 294 295 294 294 294 293 293 293 292
296 297 296 296 295 293 296 296 296 296 296 296 294 297 299 299 296 297 298 297 299 298 301 300 301 299 300 297 294 297 292 294 297 298 296 295 298 298 301 301 301 300 300 299 300 298 297 297 295 294 293 292 292 291
297 297 296 296 294 294 295 295 296 296 296 295 297 297 296 297 297 294 291 295 297 299 300 299 301 301 301 300 297 296 295 294 300 295 292 295 296 300 300 300 300 300 298 298 297 297 296 296 295 294 293 292 291 291
297 296 296 295 296 296 295 295 295 295 295 296 297 295 296 295 292 291 292 296 295 298 301 301 297 300 299 300 294 291 292 294 295 289 293 295 298 300 300 300 299 298 297 297 296 296 296 296 295 294 293 292 291 291
295 295 295 295 295 295 295 295 295 295 295 295 295 291 290 293 294 297 298 296 298 299 301 301 299 299 298 295 292 293 298 295 290 291 295 292 299 299 300 300 299 298 297 297 296 295 295 294 294 293 292 292 291 291
295 295 295 294 295 295 295 295 294 294 294 294 294 292 290 295 296 296 297 298 299 300 300 300 298 299 293 293 294 295 297 294 294 293 291 298 298 299 299 299 299 298 297 297 297 296 295 295 294 293 292 292 291 290
294 294 293 293 293 294 294 293 294 294 295 295 294 292 294 295 294 295 296 299 300 300 299 300 294 293 294 294 297 294 298 295 293 298 297 298 298 299 299 299 299 298 298 297 297 296 296 295 294 294 293 292 291 290
295 294 294 293 293 293 293 294 295 294 294 294 294 294 294 294 294 294 296 299 300 299 292 295 295 297 295 295 298 296 295 298 296 296 297 298 298 298 299 298 298 298 297 296 296 295 295 294 294 293 292 291 290 289
294 294 293 293 293 293 294 294 294 293 293 294 294 293 294 294 295 296 297 299 299 298 298 296 298 296 292 298 296 297 295 294 295 295 294 296 297 298 297 297 297 297 296 296 295 295 294 293 293 292 291 290 289 289
294 294 294 293 293 293 293 293 293 293 294 294 294 294 294 295 296 296 297 298 298 298 298 298 293 294 292 292 293 294 294 295 294 292 292 293 294 295 296 296 295 295 295 295 294 294 293 293 292 291 290 289 289 288
293 293 292 292 293 293 294 294 294 294 294 294 294 293 294 295 295 295 296 297 297 297 295 293 290 291 292 291 291 292 294 295 294 294 293 292 292 293 293 293 293 293 293 293 292 292 291 291 290 290 289 288 287 287
293 293 293 293 294 294 293 293 293 293 293 293 293 294 294 294 294 294 294 295 294 292 292 290 290 290 290 291 291 292 293 294 294 294 293 294 292 292 292 291 291 291 291 291 290 290 289 289 288 287 286 286 286 285
292 292 291 291 292 293 293 293 293 293 293 293 294 293 293 293 293 292 293 292 290 288 289 288 289 289 289 289 289 290 290 290 291 292 292 292 292 292 291 291 290 289 289 289 288 289 288 287 287 286 286 286 285 284
292 292 291 290 292 293 293 293 293 293 289 293 293 291 290 292 292 292 290 289 287 287 288 288 288 288 288 288 288 288 288 288 289 290 291 292 292 292 292 292 291 291 290 289 289 288 287 287 286 285 285 285 284 284
292 291 290 290 291 288 292 292 293 292 292 290 289 288 289 292 291 290 288 286 284 286 287 286 287 288 287 287 287 286 286 286 286 287 288 289 290 290 291 291 291 290 289 288 288 288 287 287 287 286 286 285 284 284
290 290 290 286 291 289 280 280 282 287 284 284 285 283 284 291 281 280 283 282 282 283 284 284 284 284 285 284 284 284 284 284 284 285 285 287 288 288 289 290 290 289 288 288 287 287 286 286 286 286 286 286 285 284
283 290 287 289 288 286 285 284 281 281 280 282 282 291 290 280 280 281 282 281 281 281 281 282 282 282 282 282 282 283 283 283 283 283 283 284 285 286 286 287 287 287 287 286 286 286 285 285 285 284 285 285 285 284
282 283 290 291 291 291 288 290 289 283 281 281 281 281 279 282 278 279 279 279 280 280 280 280 280 281 281 281 281 281 282 282 282 283 282 283 284 284 284 284 284 284 284 284 284 284 284 284 283 283 283 284 284 283
290 290 283 290 291 291 281 279 280 283 280 289 288 281 282 279 278 277 277 278 278 279 279 280 280 280 281 281 281 282 282 283 283 282 282 282 282 282 282 282 282 282 282 281 281 281 281 281 281 282 283 283 283 282
290 289 289 288 290 290 289 285 285 288 288 289 282 277 276 276 275 276 276 277 278 278 279 279 279 279 279 280 280 281 281 282 281 281 282 281 281 281 281 281 281 281 281 281 281 281 281 281 281 281 281 282 282 283
289 289 289 287 280 281 289 289 289 287 286 286 283 278 275 273 273 274 275 276 276 277 277 277 277 277 278 278 278 279 279 280 280 280 280 280 280 279 280 280 280 280 280 280 280 281 281 281 281 281 281 281 282 282
289 288 288 288 286 288 287 287 287 285 284 282 281 279 274 272 272 273 274 274 274 274 274 275 275 275 275 276 276 276 277 277 277 277 278 278 278 278 278 278 278 277 277 278 278 279 279 280 280 280 280 280 280 279
289 289 288 284 285 286 287 286 286 285 283 281 277 276 274 273 272 271 271 271 272 273 273 273 273 273 274 273 274 274 274 275 275 276 276 276 277 277 276 276 276 276 276 277 277 277 278 279 279 279 278 278 277 276
286 287 288 287 285 285 285 285 285 281 280 279 277 275 274 273 270 270 270 270 271 272 272 272 272 272 272 272 273 273 273 274 274 274 275 275 275 275 275 275 275 275 275 275 275 276 276 276 276 276 275 275 275 274